Wetterdaten: Montag, 31.07.2023
Datum Zeit Temp. Aussen Temp. o. S. Temp +5cm Feuchte Auss Luftdruck Regen Sonnenschein Regendauer Solar Windben Empfang
31.07.2023 00:00 16,2 C 15,0 C 11,7 C 98 % 1012,3 hPa 0,0 l/m 0 min 2 min 0 W/m 16,1 km/h (3 Bft) 95,74 %
31.07.2023 00:02 16,2 C 15,0 C 11,7 C 98 % 1012,4 hPa 0,0 l/m 0 min 2 min 0 W/m 25,7 km/h (4 Bft) 95,56 %
31.07.2023 00:04 16,2 C 15,0 C 11,7 C 98 % 1012,3 hPa 0,0 l/m 0 min 2 min 0 W/m 19,3 km/h (3 Bft) 95,83 %
31.07.2023 00:08 16,2 C 15,0 C 11,7 C 98 % 1012,3 hPa 0,0 l/m 0 min 4 min 0 W/m 35,4 km/h (5 Bft) 94,12 %
31.07.2023 00:10 16,3 C 15,0 C 11,7 C 98 % 1012,3 hPa 0,0 l/m 0 min 2 min 0 W/m 16,1 km/h (3 Bft) 97,87 %
31.07.2023 00:12 16,3 C 15,0 C 11,7 C 98 % 1012,2 hPa 0,2 l/m 0 min 2 min 0 W/m 12,9 km/h (3 Bft) 100,00 %
31.07.2023 00:14 16,3 C 15,6 C 11,7 C 98 % 1012,2 hPa 0,0 l/m 0 min 2 min 0 W/m 16,1 km/h (3 Bft) 97,87 %
31.07.2023 00:16 16,3 C 15,0 C 11,7 C 98 % 1012,2 hPa 0,0 l/m 0 min 2 min 0 W/m 25,7 km/h (4 Bft) 100,00 %
31.07.2023 00:18 16,3 C 15,6 C 11,7 C 98 % 1012,2 hPa 0,0 l/m 0 min 2 min 0 W/m 22,5 km/h (4 Bft) 97,87 %
31.07.2023 00:20 16,3 C 15,6 C 11,7 C 97 % 1012,2 hPa 0,0 l/m 0 min 2 min 0 W/m 29,0 km/h (5 Bft) 97,83 %
31.07.2023 00:22 16,3 C 15,6 C 11,7 C 97 % 1012,2 hPa 0,0 l/m 0 min 2 min 0 W/m 29,0 km/h (5 Bft) 100,00 %
31.07.2023 00:24 16,3 C 15,6 C 11,7 C 97 % 1012,1 hPa 0,0 l/m 0 min 2 min 0 W/m 22,5 km/h (4 Bft) 100,00 %
31.07.2023 00:26 16,3 C 15,6 C 11,7 C 97 % 1012,2 hPa 0,0 l/m 0 min 2 min 0 W/m 19,3 km/h (3 Bft) 97,87 %
31.07.2023 00:28 16,3 C 15,6 C 11,7 C 97 % 1012,1 hPa 0,0 l/m 0 min 2 min 0 W/m 19,3 km/h (3 Bft) 97,87 %
31.07.2023 00:30 16,3 C 15,6 C 11,7 C 97 % 1012,1 hPa 0,0 l/m 0 min 2 min 0 W/m 22,5 km/h (4 Bft) 100,00 %
31.07.2023 00:32 16,3 C 15,6 C 11,7 C 97 % 1012,1 hPa 0,0 l/m 0 min 2 min 0 W/m 16,1 km/h (3 Bft) 93,62 %
31.07.2023 00:34 16,3 C 15,6 C 11,7 C 98 % 1012,2 hPa 0,0 l/m 0 min 2 min 0 W/m 19,3 km/h (3 Bft) 97,83 %
31.07.2023 00:36 16,4 C 15,6 C 11,7 C 98 % 1012,2 hPa 0,0 l/m 0 min 2 min 0 W/m 29,0 km/h (5 Bft) 95,74 %
31.07.2023 00:38 16,4 C 15,6 C 11,7 C 97 % 1012,2 hPa 0,0 l/m 0 min 2 min 0 W/m 29,0 km/h (5 Bft) 95,74 %
31.07.2023 00:40 16,4 C 15,6 C 11,7 C 97 % 1012,1 hPa 0,0 l/m 0 min 2 min 0 W/m 19,3 km/h (3 Bft) 97,87 %
31.07.2023 00:42 16,4 C 15,6 C 11,7 C 97 % 1012,4 hPa 0,0 l/m 0 min 2 min 0 W/m 19,3 km/h (3 Bft) 95,74 %
31.07.2023 00:44 16,4 C 15,6 C 11,7 C 97 % 1012,2 hPa 0,0 l/m 0 min 2 min 0 W/m 22,5 km/h (4 Bft) 97,87 %
31.07.2023 00:46 16,4 C 15,6 C 11,7 C 97 % 1012,1 hPa 0,0 l/m 0 min 2 min 0 W/m 16,1 km/h (3 Bft) 97,83 %
31.07.2023 00:48 16,4 C 15,6 C 11,7 C 97 % 1012,1 hPa 0,0 l/m 0 min 2 min 0 W/m 22,5 km/h (4 Bft) 97,87 %
31.07.2023 00:50 16,4 C 15,6 C 11,7 C 97 % 1012,1 hPa 0,0 l/m 0 min 2 min 0 W/m 22,5 km/h (4 Bft) 93,62 %
31.07.2023 00:52 16,4 C 15,6 C 11,7 C 97 % 1012,1 hPa 0,2 l/m 0 min 2 min 0 W/m 16,1 km/h (3 Bft) 97,87 %
31.07.2023 00:54 16,4 C 15,6 C 11,7 C 97 % 1012,2 hPa 0,0 l/m 0 min 2 min 0 W/m 25,7 km/h (4 Bft) 97,87 %
31.07.2023 00:56 16,4 C 15,6 C 11,7 C 97 % 1012,0 hPa 0,0 l/m 0 min 2 min 0 W/m 19,3 km/h (3 Bft) 93,62 %
31.07.2023 00:58 16,4 C 15,6 C 11,7 C 97 % 1012,0 hPa 0,0 l/m 0 min 2 min 0 W/m 19,3 km/h (3 Bft) 95,65 %
31.07.2023 01:00 16,4 C 15,6 C 11,7 C 97 % 1012,0 hPa 0,0 l/m 0 min 2 min 0 W/m 16,1 km/h (3 Bft) 97,87 %
31.07.2023 01:02 16,4 C 15,6 C 11,7 C 97 % 1012,0 hPa 0,0 l/m 0 min 2 min 0 W/m 22,5 km/h (4 Bft) 97,87 %
31.07.2023 01:04 16,4 C 15,6 C 11,7 C 97 % 1012,1 hPa 0,0 l/m 0 min 2 min 0 W/m 22,5 km/h (4 Bft) 97,92 %
31.07.2023 01:06 16,4 C 15,6 C 11,7 C 97 % 1012,1 hPa 0,0 l/m 0 min 0 min 0 W/m 16,1 km/h (3 Bft) 96,61 %
31.07.2023 01:12 16,4 C 15,6 C 11,7 C 97 % 1012,1 hPa 0,0 l/m 0 min 0 min 0 W/m 12,9 km/h (3 Bft) 100,00 %
31.07.2023 01:14 16,4 C 15,6 C 11,7 C 97 % 1012,0 hPa 0,0 l/m 0 min 0 min 0 W/m 19,3 km/h (3 Bft) 95,65 %
31.07.2023 01:16 16,4 C 15,6 C 11,7 C 97 % 1012,0 hPa 0,0 l/m 0 min 0 min 0 W/m 12,9 km/h (3 Bft) 96,43 %
31.07.2023 01:18 16,4 C 15,6 C 11,7 C 97 % 1012,0 hPa 0,0 l/m 0 min 2 min 0 W/m 25,7 km/h (4 Bft) 95,74 %
31.07.2023 01:20 16,4 C 15,6 C 11,7 C 97 % 1012,1 hPa 0,0 l/m 0 min 2 min 0 W/m 19,3 km/h (3 Bft) 97,87 %
31.07.2023 01:22 16,4 C 15,6 C 11,7 C 97 % 1012,0 hPa 0,0 l/m 0 min 2 min 0 W/m 22,5 km/h (4 Bft) 97,87 %
31.07.2023 01:24 16,4 C 15,6 C 11,7 C 97 % 1012,0 hPa 0,0 l/m 0 min 2 min 0 W/m 29,0 km/h (5 Bft) 95,74 %
31.07.2023 01:26 16,4 C 15,6 C 11,7 C 97 % 1012,0 hPa 0,0 l/m 0 min 2 min 0 W/m 16,1 km/h (3 Bft) 97,87 %
31.07.2023 01:28 16,4 C 15,6 C 11,7 C 97 % 1011,9 hPa 0,0 l/m 0 min 2 min 0 W/m 22,5 km/h (4 Bft) 93,48 %
31.07.2023 01:30 16,4 C 15,6 C 11,7 C 97 % 1012,0 hPa 0,0 l/m 0 min 2 min 0 W/m 22,5 km/h (4 Bft) 97,87 %
31.07.2023 01:32 16,4 C 15,6 C 11,7 C 97 % 1012,0 hPa 0,0 l/m 0 min 2 min 0 W/m 16,1 km/h (3 Bft) 95,74 %
31.07.2023 01:34 16,4 C 15,6 C 11,7 C 97 % 1012,0 hPa 0,0 l/m 0 min 0 min 0 W/m 22,5 km/h (4 Bft) 95,74 %
31.07.2023 01:36 16,4 C 15,6 C 11,7 C 97 % 1012,0 hPa 0,0 l/m 0 min 0 min 0 W/m 16,1 km/h (3 Bft) 95,74 %
31.07.2023 01:38 16,4 C 15,6 C 11,7 C 97 % 1012,0 hPa 0,0 l/m 0 min 2 min 0 W/m 22,5 km/h (4 Bft) 95,74 %
31.07.2023 01:40 16,4 C 15,6 C 11,7 C 97 % 1011,9 hPa 0,0 l/m 0 min 2 min 0 W/m 19,3 km/h (3 Bft) 95,74 %
31.07.2023 01:42 16,4 C 15,6 C 11,7 C 97 % 1011,9 hPa 0,0 l/m 0 min 2 min 0 W/m 25,7 km/h (4 Bft) 95,65 %
31.07.2023 01:44 16,4 C 15,6 C 11,7 C 97 % 1012,0 hPa 0,0 l/m 0 min 2 min 0 W/m 25,7 km/h (4 Bft) 95,74 %
31.07.2023 01:46 16,4 C 15,6 C 11,7 C 97 % 1012,0 hPa 0,0 l/m 0 min 2 min 0 W/m 22,5 km/h (4 Bft) 95,74 %
31.07.2023 01:48 16,4 C 15,6 C 11,7 C 97 % 1011,9 hPa 0,0 l/m 0 min 2 min 0 W/m 19,3 km/h (3 Bft) 93,62 %
31.07.2023 01:50 16,4 C 15,6 C 11,7 C 97 % 1011,9 hPa 0,0 l/m 0 min 2 min 0 W/m 16,1 km/h (3 Bft) 95,74 %
31.07.2023 01:52 16,4 C 15,6 C 11,7 C 97 % 1011,9 hPa 0,0 l/m 0 min 2 min 0 W/m 29,0 km/h (5 Bft) 95,74 %
31.07.2023 01:54 16,4 C 15,6 C 11,7 C 97 % 1012,0 hPa 0,0 l/m 0 min 2 min 0 W/m 16,1 km/h (3 Bft) 94,34 %
31.07.2023 01:56 16,4 C 15,6 C 11,7 C 97 % 1012,0 hPa 0,0 l/m 0 min 0 min 0 W/m 12,9 km/h (3 Bft) 96,00 %
31.07.2023 01:58 16,4 C 15,6 C 11,7 C 97 % 1012,0 hPa 0,0 l/m 0 min 0 min 0 W/m 22,5 km/h (4 Bft) 95,74 %
31.07.2023 02:00 16,4 C 15,6 C 11,7 C 97 % 1012,2 hPa 0,0 l/m 0 min 2 min 0 W/m 25,7 km/h (4 Bft) 95,74 %
31.07.2023 02:02 16,4 C 15,6 C 11,7 C 97 % 1011,9 hPa 0,0 l/m 0 min 2 min 0 W/m 12,9 km/h (3 Bft) 95,74 %
31.07.2023 02:04 16,4 C 15,6 C 11,7 C 97 % 1012,0 hPa 0,0 l/m 0 min 2 min 0 W/m 22,5 km/h (4 Bft) 95,74 %
31.07.2023 02:06 16,4 C 15,6 C 11,7 C 97 % 1011,9 hPa 0,0 l/m 0 min 2 min 0 W/m 19,3 km/h (3 Bft) 100,00 %
31.07.2023 02:08 16,4 C 15,6 C 11,7 C 97 % 1011,9 hPa 0,0 l/m 0 min 2 min 0 W/m 19,3 km/h (3 Bft) 94,44 %
31.07.2023 02:10 16,4 C 15,6 C 11,7 C 97 % 1011,9 hPa 0,0 l/m 0 min 2 min 0 W/m 12,9 km/h (3 Bft) 97,83 %
31.07.2023 02:12 16,4 C 15,6 C 11,7 C 97 % 1011,9 hPa 0,0 l/m 0 min 2 min 0 W/m 16,1 km/h (3 Bft) 100,00 %
31.07.2023 02:14 16,4 C 15,6 C 11,7 C 97 % 1012,0 hPa 0,0 l/m 0 min 2 min 0 W/m 19,3 km/h (3 Bft) 100,00 %
31.07.2023 02:16 16,4 C 15,6 C 11,7 C 97 % 1011,9 hPa 0,0 l/m 0 min 0 min 0 W/m 16,1 km/h (3 Bft) 100,00 %
31.07.2023 02:18 16,4 C 15,6 C 11,7 C 97 % 1011,9 hPa 0,0 l/m 0 min 0 min 0 W/m 16,1 km/h (3 Bft) 100,00 %
31.07.2023 02:20 16,4 C 15,6 C 11,7 C 97 % 1011,9 hPa 0,0 l/m 0 min 2 min 0 W/m 16,1 km/h (3 Bft) 97,87 %
31.07.2023 02:22 16,4 C 15,6 C 11,7 C 97 % 1011,9 hPa 0,0 l/m 0 min 2 min 0 W/m 19,3 km/h (3 Bft) 100,00 %
31.07.2023 02:24 16,4 C 15,6 C 11,7 C 97 % 1011,9 hPa 0,0 l/m 0 min 0 min 0 W/m 22,5 km/h (4 Bft) 100,00 %
31.07.2023 02:26 16,4 C 15,6 C 11,7 C 97 % 1011,9 hPa 0,0 l/m 0 min 2 min 0 W/m 12,9 km/h (3 Bft) 100,00 %
31.07.2023 02:28 16,4 C 15,6 C 11,7 C 97 % 1011,9 hPa 0,0 l/m 0 min 0 min 0 W/m 16,1 km/h (3 Bft) 100,00 %
31.07.2023 02:30 16,4 C 15,6 C 11,7 C 97 % 1011,8 hPa 0,0 l/m 0 min 0 min 0 W/m 12,9 km/h (3 Bft) 97,87 %
31.07.2023 02:32 16,4 C 15,6 C 11,7 C 97 % 1011,9 hPa 0,0 l/m 0 min 0 min 0 W/m 16,1 km/h (3 Bft) 100,00 %
31.07.2023 02:34 16,4 C 15,6 C 11,7 C 97 % 1011,8 hPa 0,0 l/m 0 min 2 min 0 W/m 16,1 km/h (3 Bft) 100,00 %
31.07.2023 02:36 16,4 C 15,6 C 11,7 C 97 % 1011,8 hPa 0,0 l/m 0 min 0 min 0 W/m 19,3 km/h (3 Bft) 100,00 %
31.07.2023 02:38 16,4 C 15,6 C 11,7 C 96 % 1011,9 hPa 0,0 l/m 0 min 2 min 0 W/m 16,1 km/h (3 Bft) 97,83 %
31.07.2023 02:40 16,4 C 15,6 C 11,7 C 96 % 1011,9 hPa 0,0 l/m 0 min 0 min 0 W/m 12,9 km/h (3 Bft) 97,87 %
31.07.2023 02:42 16,4 C 15,6 C 11,7 C 96 % 1011,8 hPa 0,0 l/m 0 min 0 min 0 W/m 16,1 km/h (3 Bft) 100,00 %
31.07.2023 02:44 16,4 C 15,6 C 11,7 C 97 % 1011,8 hPa 0,0 l/m 0 min 0 min 0 W/m 16,1 km/h (3 Bft) 100,00 %
31.07.2023 02:46 16,4 C 15,6 C 11,7 C 96 % 1011,9 hPa 0,0 l/m 0 min 0 min 0 W/m 19,3 km/h (3 Bft) 100,00 %
31.07.2023 02:48 16,4 C 15,6 C 11,7 C 96 % 1011,9 hPa 0,0 l/m 0 min 0 min 0 W/m 22,5 km/h (4 Bft) 100,00 %
31.07.2023 02:50 16,4 C 15,6 C 11,7 C 96 % 1012,0 hPa 0,0 l/m 0 min 0 min 0 W/m 16,1 km/h (3 Bft) 100,00 %
31.07.2023 02:52 16,4 C 15,6 C 11,7 C 96 % 1011,8 hPa 0,0 l/m 0 min 0 min 0 W/m 6,4 km/h (2 Bft) 95,74 %
31.07.2023 02:54 16,4 C 15,6 C 11,7 C 96 % 1011,8 hPa 0,0 l/m 0 min 0 min 0 W/m 16,1 km/h (3 Bft) 100,00 %
31.07.2023 02:56 16,4 C 15,6 C 11,7 C 96 % 1011,9 hPa 0,0 l/m 0 min 0 min 0 W/m 22,5 km/h (4 Bft) 100,00 %
31.07.2023 02:58 16,4 C 15,6 C 11,7 C 96 % 1011,8 hPa 0,0 l/m 0 min 0 min 0 W/m 16,1 km/h (3 Bft) 100,00 %
31.07.2023 03:00 16,4 C 15,6 C 11,7 C 96 % 1011,8 hPa 0,0 l/m 0 min 0 min 0 W/m 22,5 km/h (4 Bft) 100,00 %
31.07.2023 03:02 16,3 C 15,6 C 11,7 C 96 % 1011,6 hPa 0,0 l/m 0 min 0 min 0 W/m 16,1 km/h (3 Bft) 100,00 %
31.07.2023 03:04 16,4 C 15,6 C 11,7 C 96 % 1011,8 hPa 0,0 l/m 0 min 0 min 0 W/m 12,9 km/h (3 Bft) 97,87 %
31.07.2023 03:06 16,4 C 15,6 C 11,7 C 96 % 1011,7 hPa 0,0 l/m 0 min 0 min 0 W/m 19,3 km/h (3 Bft) 100,00 %
31.07.2023 03:08 16,4 C 15,6 C 11,7 C 96 % 1011,7 hPa 0,0 l/m 0 min 0 min 0 W/m 16,1 km/h (3 Bft) 100,00 %
31.07.2023 03:10 16,4 C 15,6 C 11,7 C 96 % 1011,7 hPa 0,0 l/m 0 min 0 min 0 W/m 16,1 km/h (3 Bft) 97,87 %
31.07.2023 03:12 16,4 C 15,6 C 11,7 C 96 % 1011,6 hPa 0,0 l/m 0 min 0 min 0 W/m 19,3 km/h (3 Bft) 100,00 %
31.07.2023 03:14 16,4 C 15,6 C 11,7 C 96 % 1011,7 hPa 0,0 l/m 0 min 0 min 0 W/m 12,9 km/h (3 Bft) 97,83 %
31.07.2023 03:16 16,4 C 15,6 C 11,7 C 96 % 1011,6 hPa 0,0 l/m 0 min 0 min 0 W/m 12,9 km/h (3 Bft) 97,87 %
31.07.2023 03:18 16,4 C 15,6 C 11,7 C 95 % 1011,6 hPa 0,0 l/m 0 min 0 min 0 W/m 16,1 km/h (3 Bft) 97,87 %
31.07.2023 03:20 16,4 C 15,6 C 11,7 C 95 % 1011,6 hPa 0,0 l/m 0 min 0 min 0 W/m 12,9 km/h (3 Bft) 97,87 %
31.07.2023 03:22 16,4 C 15,6 C 11,7 C 95 % 1011,6 hPa 0,0 l/m 0 min 0 min 0 W/m 12,9 km/h (3 Bft) 97,87 %
31.07.2023 03:24 16,4 C 15,6 C 11,7 C 95 % 1011,8 hPa 0,0 l/m 0 min 0 min 0 W/m 22,5 km/h (4 Bft) 95,74 %
31.07.2023 03:26 16,4 C 15,6 C 11,7 C 95 % 1011,8 hPa 0,0 l/m 0 min 0 min 0 W/m 9,7 km/h (2 Bft) 95,74 %
31.07.2023 03:28 16,4 C 15,6 C 11,7 C 95 % 1011,8 hPa 0,0 l/m 0 min 0 min 0 W/m 22,5 km/h (4 Bft) 95,65 %
31.07.2023 03:30 16,4 C 15,6 C 11,7 C 95 % 1011,8 hPa 0,0 l/m 0 min 0 min 0 W/m 19,3 km/h (3 Bft) 93,62 %
31.07.2023 03:32 16,4 C 15,6 C 11,7 C 95 % 1011,8 hPa 0,0 l/m 0 min 0 min 0 W/m 12,9 km/h (3 Bft) 95,74 %
31.07.2023 03:34 16,4 C 15,6 C 11,7 C 95 % 1011,8 hPa 0,0 l/m 0 min 0 min 0 W/m 12,9 km/h (3 Bft) 95,74 %
31.07.2023 03:36 16,4 C 15,6 C 11,7 C 95 % 1011,8 hPa 0,0 l/m 0 min 0 min 0 W/m 12,9 km/h (3 Bft) 95,74 %
31.07.2023 03:38 16,4 C 15,6 C 11,7 C 95 % 1011,6 hPa 0,0 l/m 0 min 0 min 0 W/m 16,1 km/h (3 Bft) 95,74 %
31.07.2023 03:40 16,4 C 15,6 C 11,7 C 95 % 1011,8 hPa 0,2 l/m 0 min 0 min 0 W/m 12,9 km/h (3 Bft) 97,87 %
31.07.2023 03:42 16,4 C 15,6 C 11,7 C 95 % 1011,7 hPa 0,0 l/m 0 min 0 min 0 W/m 16,1 km/h (3 Bft) 95,65 %
31.07.2023 03:44 16,4 C 15,6 C 11,1 C 95 % 1011,8 hPa 0,0 l/m 0 min 0 min 0 W/m 19,3 km/h (3 Bft) 93,62 %
31.07.2023 03:46 16,4 C 15,6 C 11,1 C 95 % 1011,6 hPa 0,0 l/m 0 min 0 min 0 W/m 25,7 km/h (4 Bft) 95,74 %
31.07.2023 03:48 16,4 C 15,6 C 11,1 C 94 % 1011,6 hPa 0,0 l/m 0 min 0 min 0 W/m 22,5 km/h (4 Bft) 93,62 %
31.07.2023 03:50 16,4 C 15,6 C 11,1 C 94 % 1011,5 hPa 0,0 l/m 0 min 0 min 0 W/m 22,5 km/h (4 Bft) 95,74 %
31.07.2023 03:52 16,4 C 15,6 C 11,1 C 94 % 1011,6 hPa 0,0 l/m 0 min 0 min 0 W/m 16,1 km/h (3 Bft) 95,74 %
31.07.2023 03:54 16,4 C 15,6 C 11,1 C 94 % 1011,5 hPa 0,0 l/m 0 min 0 min 0 W/m 12,9 km/h (3 Bft) 93,88 %
31.07.2023 03:56 16,4 C 15,6 C 11,1 C 94 % 1011,5 hPa 0,0 l/m 0 min 0 min 0 W/m 12,9 km/h (3 Bft) 95,74 %
31.07.2023 03:58 16,4 C 15,6 C 11,1 C 94 % 1011,4 hPa 0,0 l/m 0 min 0 min 0 W/m 12,9 km/h (3 Bft) 97,96 %
31.07.2023 04:00 16,4 C 15,6 C 11,1 C 94 % 1011,4 hPa 0,0 l/m 0 min 0 min 0 W/m 16,1 km/h (3 Bft) 100,00 %
31.07.2023 04:02 16,4 C 15,6 C 11,1 C 94 % 1011,4 hPa 0,0 l/m 0 min 0 min 0 W/m 19,3 km/h (3 Bft) 100,00 %
31.07.2023 04:04 16,4 C 15,6 C 11,1 C 94 % 1011,4 hPa 0,0 l/m 0 min 0 min 0 W/m 16,1 km/h (3 Bft) 100,00 %
31.07.2023 04:06 16,4 C 15,6 C 11,1 C 94 % 1011,4 hPa 0,0 l/m 0 min 0 min 0 W/m 16,1 km/h (3 Bft) 100,00 %
31.07.2023 04:08 16,4 C 15,6 C 11,1 C 94 % 1011,4 hPa 0,0 l/m 0 min 0 min 0 W/m 25,7 km/h (4 Bft) 100,00 %
31.07.2023 04:10 16,4 C 15,6 C 11,1 C 94 % 1011,4 hPa 0,0 l/m 0 min 0 min 0 W/m 12,9 km/h (3 Bft) 100,00 %
31.07.2023 04:12 16,5 C 15,6 C 11,1 C 94 % 1011,4 hPa 0,0 l/m 0 min 0 min 0 W/m 16,1 km/h (3 Bft) 100,00 %
31.07.2023 04:14 16,5 C 15,6 C 11,1 C 93 % 1011,4 hPa 0,0 l/m 0 min 0 min 0 W/m 16,1 km/h (3 Bft) 97,87 %
31.07.2023 04:16 16,5 C 15,6 C 11,1 C 93 % 1011,6 hPa 0,0 l/m 0 min 0 min 0 W/m 22,5 km/h (4 Bft) 97,83 %
31.07.2023 04:18 16,5 C 15,6 C 11,1 C 93 % 1011,4 hPa 0,0 l/m 0 min 0 min 0 W/m 12,9 km/h (3 Bft) 97,87 %
31.07.2023 04:20 16,5 C 15,6 C 11,1 C 93 % 1011,4 hPa 0,0 l/m 0 min 0 min 0 W/m 12,9 km/h (3 Bft) 95,74 %
31.07.2023 04:22 16,5 C 15,6 C 11,1 C 93 % 1011,4 hPa 0,0 l/m 0 min 0 min 0 W/m 22,5 km/h (4 Bft) 93,62 %
31.07.2023 04:24 16,5 C 15,6 C 11,1 C 93 % 1011,4 hPa 0,0 l/m 0 min 0 min 0 W/m 16,1 km/h (3 Bft) 97,87 %
31.07.2023 04:26 16,6 C 15,6 C 11,1 C 93 % 1011,4 hPa 0,0 l/m 0 min 0 min 0 W/m 12,9 km/h (3 Bft) 95,74 %
31.07.2023 04:30 16,6 C 15,6 C 11,1 C 93 % 1011,3 hPa 0,0 l/m 0 min 0 min 0 W/m 12,9 km/h (3 Bft) 100,00 %
31.07.2023 04:32 16,6 C 15,6 C 11,1 C 93 % 1011,4 hPa 0,0 l/m 0 min 0 min 0 W/m 12,9 km/h (3 Bft) 100,00 %
31.07.2023 04:37 16,6 C 15,6 C 11,1 C 93 % 1011,2 hPa 0,0 l/m 0 min 0 min 0 W/m 19,3 km/h (3 Bft) 93,65 %
31.07.2023 04:38 16,6 C 15,6 C 11,7 C 93 % 1011,2 hPa 0,0 l/m 0 min 0 min 0 W/m 6,4 km/h (2 Bft) 100,00 %
31.07.2023 04:40 16,6 C 15,6 C 11,7 C 93 % 1011,2 hPa 0,0 l/m 0 min 0 min 0 W/m 12,9 km/h (3 Bft) 95,74 %
31.07.2023 04:42 16,6 C 15,6 C 11,1 C 93 % 1011,2 hPa 0,0 l/m 0 min 0 min 0 W/m 22,5 km/h (4 Bft) 97,87 %
31.07.2023 04:44 16,6 C 15,6 C 11,7 C 93 % 1011,2 hPa 0,0 l/m 0 min 0 min 0 W/m 12,9 km/h (3 Bft) 93,62 %
31.07.2023 04:46 16,6 C 15,6 C 11,7 C 93 % 1011,2 hPa 0,0 l/m 0 min 0 min 0 W/m 16,1 km/h (3 Bft) 97,83 %
31.07.2023 04:48 16,6 C 15,6 C 11,7 C 94 % 1011,2 hPa 0,0 l/m 0 min 0 min 0 W/m 19,3 km/h (3 Bft) 97,87 %
31.07.2023 04:50 16,6 C 15,6 C 11,7 C 94 % 1011,1 hPa 0,0 l/m 0 min 0 min 0 W/m 12,9 km/h (3 Bft) 95,74 %
31.07.2023 04:52 16,6 C 15,6 C 11,7 C 94 % 1011,1 hPa 0,0 l/m 0 min 0 min 0 W/m 12,9 km/h (3 Bft) 97,87 %
31.07.2023 04:54 16,6 C 15,6 C 11,7 C 94 % 1011,1 hPa 0,0 l/m 0 min 0 min 0 W/m 16,1 km/h (3 Bft) 97,14 %
31.07.2023 04:56 16,6 C 15,6 C 11,7 C 94 % 1011,1 hPa 0,0 l/m 0 min 0 min 0 W/m 12,9 km/h (3 Bft) 97,87 %
31.07.2023 04:58 16,6 C 15,6 C 11,7 C 94 % 1011,1 hPa 0,0 l/m 0 min 0 min 0 W/m 22,5 km/h (4 Bft) 97,87 %
31.07.2023 05:00 16,6 C 16,1 C 11,7 C 94 % 1011,1 hPa 0,0 l/m 0 min 0 min 0 W/m 22,5 km/h (4 Bft) 97,87 %
31.07.2023 05:02 16,6 C 16,1 C 11,7 C 94 % 1011,1 hPa 0,0 l/m 0 min 0 min 0 W/m 19,3 km/h (3 Bft) 95,74 %
31.07.2023 05:04 16,7 C 16,1 C 11,7 C 93 % 1011,1 hPa 0,0 l/m 0 min 0 min 0 W/m 16,1 km/h (3 Bft) 97,96 %
31.07.2023 05:06 16,7 C 16,1 C 11,7 C 93 % 1011,0 hPa 0,0 l/m 0 min 0 min 0 W/m 22,5 km/h (4 Bft) 98,28 %
31.07.2023 05:08 16,7 C 16,1 C 11,7 C 94 % 1011,0 hPa 0,0 l/m 0 min 0 min 0 W/m 19,3 km/h (3 Bft) 100,00 %
31.07.2023 05:10 16,7 C 16,1 C 11,7 C 94 % 1011,0 hPa 0,0 l/m 0 min 0 min 0 W/m 6,4 km/h (2 Bft) 95,74 %
31.07.2023 05:12 16,7 C 16,1 C 11,7 C 94 % 1011,1 hPa 0,0 l/m 0 min 0 min 0 W/m 16,1 km/h (3 Bft) 100,00 %
31.07.2023 05:14 16,7 C 16,1 C 11,7 C 94 % 1011,0 hPa 0,0 l/m 0 min 0 min 0 W/m 12,9 km/h (3 Bft) 100,00 %
31.07.2023 05:16 16,7 C 16,1 C 11,7 C 93 % 1011,0 hPa 0,0 l/m 0 min 0 min 0 W/m 9,7 km/h (2 Bft) 95,74 %
31.07.2023 05:18 16,8 C 16,1 C 11,7 C 93 % 1011,0 hPa 0,0 l/m 0 min 0 min 0 W/m 12,9 km/h (3 Bft) 95,65 %
31.07.2023 05:20 16,8 C 16,1 C 11,7 C 93 % 1011,0 hPa 0,0 l/m 0 min 0 min 0 W/m 9,7 km/h (2 Bft) 95,74 %
31.07.2023 05:22 16,8 C 16,1 C 11,7 C 93 % 1011,1 hPa 0,0 l/m 0 min 0 min 0 W/m 19,3 km/h (3 Bft) 95,74 %
31.07.2023 05:24 16,8 C 16,1 C 11,7 C 93 % 1011,0 hPa 0,0 l/m 0 min 0 min 0 W/m 12,9 km/h (3 Bft) 95,74 %
31.07.2023 05:26 16,8 C 16,1 C 11,7 C 93 % 1011,0 hPa 0,0 l/m 0 min 0 min 0 W/m 16,1 km/h (3 Bft) 95,74 %
31.07.2023 05:34 16,8 C 16,1 C 11,7 C 93 % 1011,0 hPa 0,0 l/m 0 min 0 min 0 W/m 12,9 km/h (3 Bft) 97,56 %
31.07.2023 05:36 16,8 C 16,1 C 11,7 C 93 % 1011,0 hPa 0,0 l/m 0 min 0 min 0 W/m 12,9 km/h (3 Bft) 100,00 %
31.07.2023 05:38 16,8 C 16,1 C 11,7 C 93 % 1011,0 hPa 0,0 l/m 0 min 0 min 0 W/m 6,4 km/h (2 Bft) 97,87 %
31.07.2023 05:40 16,8 C 16,1 C 11,7 C 93 % 1011,0 hPa 0,0 l/m 0 min 0 min 0 W/m 6,4 km/h (2 Bft) 95,65 %
31.07.2023 05:42 16,9 C 16,1 C 11,7 C 93 % 1010,9 hPa 0,0 l/m 0 min 0 min 0 W/m 12,9 km/h (3 Bft) 92,86 %
31.07.2023 05:44 16,9 C 16,1 C 11,7 C 93 % 1010,8 hPa 0,0 l/m 0 min 0 min 0 W/m 19,3 km/h (3 Bft) 97,87 %
31.07.2023 05:46 16,9 C 16,1 C 11,7 C 93 % 1010,9 hPa 0,0 l/m 0 min 0 min 0 W/m 25,7 km/h (4 Bft) 97,87 %
31.07.2023 05:48 16,9 C 16,1 C 12,2 C 93 % 1010,8 hPa 0,0 l/m 0 min 0 min 0 W/m 16,1 km/h (3 Bft) 100,00 %
31.07.2023 05:50 16,9 C 16,1 C 12,2 C 93 % 1010,8 hPa 0,0 l/m 0 min 0 min 0 W/m 12,9 km/h (3 Bft) 95,74 %
31.07.2023 05:52 16,9 C 16,1 C 12,2 C 93 % 1010,9 hPa 0,0 l/m 0 min 0 min 0 W/m 19,3 km/h (3 Bft) 97,83 %
31.07.2023 05:54 16,9 C 16,1 C 12,2 C 92 % 1010,9 hPa 0,0 l/m 0 min 0 min 0 W/m 16,1 km/h (3 Bft) 100,00 %
31.07.2023 05:56 16,9 C 16,1 C 12,2 C 92 % 1010,8 hPa 0,0 l/m 0 min 0 min 0 W/m 12,9 km/h (3 Bft) 97,87 %
31.07.2023 05:58 16,9 C 16,1 C 12,2 C 92 % 1010,8 hPa 0,0 l/m 0 min 0 min 0 W/m 22,5 km/h (4 Bft) 97,87 %
31.07.2023 06:00 17,0 C 16,1 C 12,8 C 92 % 1010,8 hPa 0,0 l/m 0 min 0 min 0 W/m 35,4 km/h (5 Bft) 97,87 %
31.07.2023 06:02 17,0 C 16,1 C 12,2 C 92 % 1010,8 hPa 0,0 l/m 0 min 2 min 0 W/m 16,1 km/h (3 Bft) 97,83 %
31.07.2023 06:04 17,0 C 16,1 C 12,2 C 92 % 1010,8 hPa 0,0 l/m 0 min 2 min 0 W/m 12,9 km/h (3 Bft) 97,92 %
31.07.2023 06:08 17,1 C 16,1 C 12,2 C 92 % 1010,7 hPa 0,0 l/m 0 min 0 min 0 W/m 19,3 km/h (3 Bft) 96,84 %
31.07.2023 06:10 17,1 C 16,1 C 12,2 C 93 % 1010,8 hPa 0,0 l/m 0 min 0 min 0 W/m 19,3 km/h (3 Bft) 95,74 %
31.07.2023 06:12 17,1 C 16,1 C 12,2 C 93 % 1010,7 hPa 0,0 l/m 0 min 0 min 0 W/m 12,9 km/h (3 Bft) 97,87 %
31.07.2023 06:14 17,0 C 16,1 C 12,2 C 93 % 1010,8 hPa 0,0 l/m 0 min 2 min 0 W/m 16,1 km/h (3 Bft) 97,87 %
31.07.2023 06:16 17,0 C 16,1 C 12,2 C 93 % 1010,7 hPa 0,0 l/m 0 min 0 min 4 W/m 12,9 km/h (3 Bft) 95,65 %
31.07.2023 06:18 17,0 C 16,1 C 12,2 C 93 % 1010,7 hPa 0,0 l/m 0 min 0 min 5 W/m 19,3 km/h (3 Bft) 97,87 %
31.07.2023 06:20 17,0 C 16,1 C 12,2 C 93 % 1010,7 hPa 0,0 l/m 0 min 0 min 5 W/m 12,9 km/h (3 Bft) 97,22 %
31.07.2023 06:22 17,0 C 16,1 C 12,2 C 93 % 1010,6 hPa 0,0 l/m 0 min 0 min 8 W/m 12,9 km/h (3 Bft) 98,15 %
31.07.2023 06:24 17,0 C 16,1 C 12,2 C 93 % 1010,6 hPa 0,0 l/m 0 min 0 min 9 W/m 16,1 km/h (3 Bft) 97,96 %
31.07.2023 06:26 17,0 C 16,1 C 12,2 C 93 % 1010,6 hPa 0,0 l/m 0 min 0 min 10 W/m 12,9 km/h (3 Bft) 97,87 %
31.07.2023 06:28 17,0 C 16,1 C 12,2 C 93 % 1010,6 hPa 0,0 l/m 0 min 0 min 10 W/m 9,7 km/h (2 Bft) 97,96 %
31.07.2023 06:30 17,0 C 16,1 C 12,2 C 93 % 1010,5 hPa 0,0 l/m 0 min 0 min 10 W/m 12,9 km/h (3 Bft) 97,14 %
31.07.2023 06:32 17,0 C 16,1 C 12,2 C 93 % 1010,5 hPa 0,0 l/m 0 min 0 min 12 W/m 12,9 km/h (3 Bft) 97,87 %
31.07.2023 06:34 17,0 C 16,1 C 12,2 C 93 % 1010,5 hPa 0,0 l/m 0 min 0 min 12 W/m 16,1 km/h (3 Bft) 96,30 %
31.07.2023 06:36 17,0 C 16,1 C 12,2 C 93 % 1010,5 hPa 0,0 l/m 0 min 0 min 13 W/m 12,9 km/h (3 Bft) 97,96 %
31.07.2023 06:38 16,9 C 16,1 C 12,8 C 93 % 1010,5 hPa 0,0 l/m 0 min 0 min 16 W/m 12,9 km/h (3 Bft) 95,92 %
31.07.2023 06:40 16,9 C 16,1 C 12,8 C 93 % 1010,5 hPa 0,0 l/m 0 min 0 min 18 W/m 16,1 km/h (3 Bft) 100,00 %
31.07.2023 06:42 16,9 C 16,1 C 12,8 C 93 % 1010,4 hPa 0,0 l/m 0 min 0 min 18 W/m 19,3 km/h (3 Bft) 92,59 %
31.07.2023 06:44 16,9 C 16,1 C 12,8 C 93 % 1010,4 hPa 0,0 l/m 0 min 0 min 18 W/m 25,7 km/h (4 Bft) 98,00 %
31.07.2023 06:46 17,0 C 16,1 C 12,8 C 94 % 1010,4 hPa 0,0 l/m 0 min 0 min 18 W/m 16,1 km/h (3 Bft) 100,00 %
31.07.2023 06:48 17,0 C 16,1 C 12,8 C 94 % 1010,4 hPa 0,0 l/m 0 min 0 min 20 W/m 19,3 km/h (3 Bft) 100,00 %
31.07.2023 06:50 17,0 C 16,1 C 12,8 C 94 % 1010,3 hPa 0,0 l/m 0 min 0 min 24 W/m 19,3 km/h (3 Bft) 100,00 %
31.07.2023 06:52 17,0 C 16,1 C 12,8 C 94 % 1010,3 hPa 0,0 l/m 0 min 0 min 25 W/m 16,1 km/h (3 Bft) 100,00 %
31.07.2023 06:54 17,0 C 16,1 C 12,8 C 94 % 1010,3 hPa 0,0 l/m 0 min 0 min 22 W/m 22,5 km/h (4 Bft) 100,00 %
31.07.2023 06:56 17,0 C 16,1 C 12,8 C 94 % 1010,3 hPa 0,0 l/m 0 min 0 min 21 W/m 22,5 km/h (4 Bft) 97,87 %
31.07.2023 06:58 17,0 C 16,1 C 12,8 C 93 % 1010,2 hPa 0,0 l/m 0 min 0 min 20 W/m 12,9 km/h (3 Bft) 97,87 %
31.07.2023 07:00 17,0 C 16,7 C 12,8 C 93 % 1010,2 hPa 0,0 l/m 0 min 0 min 17 W/m 19,3 km/h (3 Bft) 100,00 %
31.07.2023 07:02 17,0 C 16,7 C 12,8 C 93 % 1010,3 hPa 0,0 l/m 0 min 0 min 18 W/m 16,1 km/h (3 Bft) 97,87 %
31.07.2023 07:04 17,0 C 16,7 C 12,8 C 93 % 1010,2 hPa 0,0 l/m 0 min 0 min 19 W/m 12,9 km/h (3 Bft) 97,96 %
31.07.2023 07:06 17,1 C 16,7 C 12,8 C 93 % 1010,2 hPa 0,0 l/m 0 min 0 min 20 W/m 16,1 km/h (3 Bft) 100,00 %
31.07.2023 07:08 17,1 C 16,7 C 12,8 C 93 % 1010,2 hPa 0,0 l/m 0 min 0 min 24 W/m 25,7 km/h (4 Bft) 100,00 %
31.07.2023 07:10 17,1 C 16,7 C 12,8 C 93 % 1010,2 hPa 0,0 l/m 0 min 0 min 26 W/m 22,5 km/h (4 Bft) 97,87 %
31.07.2023 07:12 17,1 C 16,7 C 12,8 C 93 % 1010,1 hPa 0,0 l/m 0 min 0 min 22 W/m 19,3 km/h (3 Bft) 95,74 %
31.07.2023 07:14 17,1 C 16,7 C 12,8 C 93 % 1010,2 hPa 0,0 l/m 0 min 0 min 18 W/m 25,7 km/h (4 Bft) 95,65 %
31.07.2023 07:16 17,1 C 16,7 C 12,8 C 93 % 1010,1 hPa 0,0 l/m 0 min 0 min 18 W/m 19,3 km/h (3 Bft) 95,74 %
31.07.2023 07:18 17,1 C 16,7 C 12,8 C 93 % 1010,1 hPa 0,0 l/m 0 min 0 min 29 W/m 16,1 km/h (3 Bft) 95,74 %
31.07.2023 07:20 17,2 C 16,7 C 13,3 C 93 % 1010,1 hPa 0,0 l/m 0 min 0 min 38 W/m 29,0 km/h (5 Bft) 93,62 %
31.07.2023 07:22 17,2 C 16,7 C 13,3 C 93 % 1010,0 hPa 0,0 l/m 0 min 0 min 39 W/m 19,3 km/h (3 Bft) 95,74 %
31.07.2023 07:24 17,2 C 16,7 C 13,3 C 93 % 1010,1 hPa 0,0 l/m 0 min 0 min 35 W/m 19,3 km/h (3 Bft) 95,74 %
31.07.2023 07:26 17,2 C 16,7 C 13,3 C 93 % 1010,0 hPa 0,0 l/m 0 min 0 min 45 W/m 16,1 km/h (3 Bft) 95,65 %
31.07.2023 07:28 17,2 C 16,7 C 13,3 C 93 % 1010,0 hPa 0,0 l/m 0 min 0 min 50 W/m 22,5 km/h (4 Bft) 93,62 %
31.07.2023 07:30 17,3 C 16,7 C 13,3 C 92 % 1009,9 hPa 0,0 l/m 0 min 0 min 41 W/m 19,3 km/h (3 Bft) 95,74 %
31.07.2023 07:32 17,3 C 16,7 C 13,3 C 92 % 1010,0 hPa 0,0 l/m 0 min 0 min 35 W/m 16,1 km/h (3 Bft) 95,74 %
31.07.2023 07:34 17,3 C 16,7 C 13,3 C 92 % 1009,8 hPa 0,0 l/m 0 min 0 min 38 W/m 19,3 km/h (3 Bft) 95,74 %
31.07.2023 07:36 17,3 C 16,7 C 13,3 C 92 % 1009,9 hPa 0,0 l/m 0 min 0 min 42 W/m 16,1 km/h (3 Bft) 95,74 %
31.07.2023 07:38 17,3 C 16,7 C 13,3 C 92 % 1009,8 hPa 0,0 l/m 0 min 0 min 41 W/m 22,5 km/h (4 Bft) 93,62 %
31.07.2023 07:40 17,4 C 16,7 C 13,3 C 92 % 1009,8 hPa 0,0 l/m 0 min 0 min 37 W/m 19,3 km/h (3 Bft) 91,30 %
31.07.2023 07:42 17,4 C 16,7 C 13,3 C 92 % 1009,9 hPa 0,0 l/m 0 min 0 min 32 W/m 19,3 km/h (3 Bft) 95,74 %
31.07.2023 07:44 17,4 C 16,7 C 13,3 C 92 % 1009,8 hPa 0,0 l/m 0 min 0 min 25 W/m 19,3 km/h (3 Bft) 95,74 %
31.07.2023 07:46 17,4 C 16,7 C 13,3 C 92 % 1009,8 hPa 0,0 l/m 0 min 0 min 29 W/m 19,3 km/h (3 Bft) 95,74 %
31.07.2023 07:48 17,4 C 16,7 C 13,3 C 92 % 1009,8 hPa 0,0 l/m 0 min 0 min 29 W/m 22,5 km/h (4 Bft) 97,87 %
31.07.2023 07:50 17,4 C 16,7 C 13,3 C 92 % 1009,7 hPa 0,0 l/m 0 min 2 min 31 W/m 35,4 km/h (5 Bft) 97,87 %
31.07.2023 07:52 17,4 C 16,7 C 12,8 C 92 % 1009,7 hPa 0,0 l/m 0 min 2 min 36 W/m 19,3 km/h (3 Bft) 97,83 %
31.07.2023 07:54 17,5 C 16,7 C 12,8 C 92 % 1009,8 hPa 0,0 l/m 0 min 2 min 32 W/m 16,1 km/h (3 Bft) 95,74 %
31.07.2023 07:56 17,5 C 16,7 C 12,8 C 92 % 1009,8 hPa 0,0 l/m 0 min 2 min 27 W/m 32,2 km/h (5 Bft) 97,87 %
31.07.2023 07:58 17,5 C 16,7 C 12,2 C 92 % 1009,7 hPa 0,0 l/m 0 min 2 min 19 W/m 16,1 km/h (3 Bft) 100,00 %
31.07.2023 08:00 17,5 C 16,1 C 12,2 C 92 % 1009,8 hPa 0,2 l/m 0 min 2 min 18 W/m 12,9 km/h (3 Bft) 100,00 %
31.07.2023 08:02 17,4 C 16,1 C 12,2 C 92 % 1009,8 hPa 0,0 l/m 0 min 2 min 20 W/m 25,7 km/h (4 Bft) 100,00 %
31.07.2023 08:04 17,4 C 16,1 C 12,2 C 92 % 1009,8 hPa 0,0 l/m 0 min 2 min 20 W/m 25,7 km/h (4 Bft) 100,00 %
31.07.2023 08:06 17,3 C 15,6 C 12,2 C 92 % 1009,7 hPa 0,2 l/m 0 min 2 min 24 W/m 22,5 km/h (4 Bft) 100,00 %
31.07.2023 08:08 17,3 C 15,6 C 12,2 C 92 % 1009,7 hPa 0,0 l/m 0 min 2 min 25 W/m 22,5 km/h (4 Bft) 100,00 %
31.07.2023 08:10 17,3 C 15,6 C 12,2 C 93 % 1009,6 hPa 0,0 l/m 0 min 0 min 31 W/m 16,1 km/h (3 Bft) 97,87 %
31.07.2023 08:12 17,2 C 15,6 C 12,2 C 93 % 1009,7 hPa 0,0 l/m 0 min 2 min 36 W/m 19,3 km/h (3 Bft) 100,00 %
31.07.2023 08:14 17,2 C 15,6 C 12,2 C 93 % 1009,7 hPa 0,2 l/m 0 min 2 min 40 W/m 12,9 km/h (3 Bft) 100,00 %
31.07.2023 08:16 17,2 C 16,1 C 12,2 C 93 % 1009,7 hPa 0,0 l/m 0 min 2 min 56 W/m 16,1 km/h (3 Bft) 100,00 %
31.07.2023 08:18 17,1 C 16,1 C 12,2 C 94 % 1009,7 hPa 0,0 l/m 0 min 2 min 48 W/m 32,2 km/h (5 Bft) 100,00 %
31.07.2023 08:20 17,1 C 15,6 C 12,2 C 94 % 1009,7 hPa 0,0 l/m 0 min 2 min 44 W/m 19,3 km/h (3 Bft) 100,00 %
31.07.2023 08:22 17,1 C 15,6 C 12,2 C 94 % 1009,8 hPa 0,0 l/m 0 min 2 min 46 W/m 29,0 km/h (5 Bft) 100,00 %
31.07.2023 08:24 17,1 C 15,6 C 12,2 C 94 % 1009,7 hPa 0,0 l/m 0 min 2 min 40 W/m 22,5 km/h (4 Bft) 100,00 %
31.07.2023 08:26 17,0 C 15,6 C 12,2 C 94 % 1009,7 hPa 0,0 l/m 0 min 0 min 37 W/m 22,5 km/h (4 Bft) 100,00 %
31.07.2023 08:28 17,0 C 15,6 C 12,2 C 94 % 1009,8 hPa 0,0 l/m 0 min 0 min 38 W/m 16,1 km/h (3 Bft) 100,00 %
31.07.2023 08:30 16,9 C 15,6 C 12,2 C 95 % 1009,8 hPa 0,0 l/m 0 min 0 min 33 W/m 22,5 km/h (4 Bft) 100,00 %
31.07.2023 08:32 16,9 C 15,6 C 12,2 C 95 % 1009,8 hPa 0,0 l/m 0 min 0 min 35 W/m 12,9 km/h (3 Bft) 100,00 %
31.07.2023 08:34 16,9 C 16,1 C 12,2 C 95 % 1009,8 hPa 0,0 l/m 0 min 0 min 47 W/m 22,5 km/h (4 Bft) 100,00 %
31.07.2023 08:36 16,9 C 16,1 C 12,2 C 95 % 1009,8 hPa 0,0 l/m 0 min 0 min 50 W/m 19,3 km/h (3 Bft) 97,87 %
31.07.2023 08:38 16,9 C 16,1 C 12,2 C 95 % 1009,8 hPa 0,0 l/m 0 min 0 min 42 W/m 19,3 km/h (3 Bft) 100,00 %
31.07.2023 08:40 16,8 C 16,1 C 12,2 C 95 % 1009,8 hPa 0,0 l/m 0 min 0 min 45 W/m 22,5 km/h (4 Bft) 100,00 %
31.07.2023 08:42 16,9 C 16,1 C 12,2 C 95 % 1009,8 hPa 0,0 l/m 0 min 0 min 45 W/m 16,1 km/h (3 Bft) 100,00 %
31.07.2023 08:44 16,8 C 16,1 C 12,2 C 95 % 1009,9 hPa 0,0 l/m 0 min 0 min 50 W/m 29,0 km/h (5 Bft) 100,00 %
31.07.2023 08:46 16,8 C 16,1 C 12,2 C 95 % 1009,8 hPa 0,0 l/m 0 min 0 min 58 W/m 12,9 km/h (3 Bft) 97,87 %
31.07.2023 08:48 16,8 C 16,1 C 12,2 C 95 % 1009,9 hPa 0,0 l/m 0 min 0 min 50 W/m 19,3 km/h (3 Bft) 100,00 %
31.07.2023 08:50 16,8 C 16,1 C 12,2 C 96 % 1009,8 hPa 0,0 l/m 0 min 0 min 44 W/m 19,3 km/h (3 Bft) 100,00 %
31.07.2023 08:52 16,8 C 16,1 C 12,2 C 96 % 1009,7 hPa 0,0 l/m 0 min 0 min 45 W/m 16,1 km/h (3 Bft) 97,87 %
31.07.2023 08:54 16,8 C 16,1 C 12,2 C 96 % 1009,7 hPa 0,0 l/m 0 min 2 min 46 W/m 19,3 km/h (3 Bft) 95,74 %
31.07.2023 08:56 16,8 C 16,1 C 12,2 C 96 % 1009,7 hPa 0,0 l/m 0 min 2 min 38 W/m 22,5 km/h (4 Bft) 95,74 %
31.07.2023 08:58 16,8 C 16,1 C 12,2 C 96 % 1009,6 hPa 0,2 l/m 0 min 2 min 31 W/m 16,1 km/h (3 Bft) 97,87 %
31.07.2023 09:00 16,8 C 15,6 C 12,2 C 96 % 1009,7 hPa 0,2 l/m 0 min 2 min 33 W/m 19,3 km/h (3 Bft) 97,87 %
31.07.2023 09:02 16,8 C 15,6 C 12,2 C 96 % 1009,6 hPa 0,0 l/m 0 min 2 min 31 W/m 19,3 km/h (3 Bft) 97,83 %
31.07.2023 09:04 16,8 C 15,6 C 12,2 C 96 % 1009,6 hPa 0,2 l/m 0 min 2 min 27 W/m 19,3 km/h (3 Bft) 97,67 %
31.07.2023 09:06 16,8 C 15,6 C 12,2 C 96 % 1009,7 hPa 0,0 l/m 0 min 2 min 24 W/m 19,3 km/h (3 Bft) 97,87 %
31.07.2023 09:08 16,7 C 15,6 C 12,2 C 96 % 1009,8 hPa 0,2 l/m 0 min 2 min 24 W/m 16,1 km/h (3 Bft) 95,74 %
31.07.2023 09:10 16,7 C 15,6 C 12,2 C 96 % 1009,7 hPa 0,0 l/m 0 min 2 min 24 W/m 12,9 km/h (3 Bft) 95,65 %
31.07.2023 09:12 16,7 C 15,6 C 12,2 C 96 % 1009,6 hPa 0,2 l/m 0 min 2 min 26 W/m 16,1 km/h (3 Bft) 95,74 %
31.07.2023 09:14 16,6 C 15,6 C 12,2 C 96 % 1009,5 hPa 0,0 l/m 0 min 2 min 31 W/m 22,5 km/h (4 Bft) 95,74 %
31.07.2023 09:16 16,6 C 15,0 C 12,2 C 96 % 1009,6 hPa 0,2 l/m 0 min 2 min 30 W/m 16,1 km/h (3 Bft) 95,74 %
31.07.2023 09:18 16,6 C 15,6 C 12,2 C 96 % 1009,5 hPa 0,0 l/m 0 min 2 min 27 W/m 12,9 km/h (3 Bft) 95,74 %
31.07.2023 09:20 16,6 C 15,6 C 12,2 C 96 % 1009,6 hPa 0,0 l/m 0 min 2 min 37 W/m 16,1 km/h (3 Bft) 93,62 %
31.07.2023 09:22 16,6 C 15,0 C 11,7 C 96 % 1009,7 hPa 0,0 l/m 0 min 2 min 47 W/m 25,7 km/h (4 Bft) 91,30 %
31.07.2023 09:24 16,6 C 15,0 C 12,2 C 96 % 1009,5 hPa 0,2 l/m 0 min 2 min 57 W/m 16,1 km/h (3 Bft) 93,62 %
31.07.2023 09:26 16,6 C 15,0 C 12,2 C 96 % 1009,6 hPa 0,2 l/m 0 min 2 min 58 W/m 22,5 km/h (4 Bft) 93,62 %
31.07.2023 09:28 16,6 C 15,6 C 12,2 C 96 % 1009,5 hPa 0,0 l/m 0 min 0 min 70 W/m 22,5 km/h (4 Bft) 95,74 %
31.07.2023 09:30 16,6 C 15,6 C 12,2 C 96 % 1009,6 hPa 0,0 l/m 0 min 2 min 84 W/m 25,7 km/h (4 Bft) 93,62 %
31.07.2023 09:32 16,6 C 15,6 C 12,2 C 97 % 1009,6 hPa 0,0 l/m 0 min 2 min 96 W/m 16,1 km/h (3 Bft) 93,62 %
31.07.2023 09:34 16,6 C 15,6 C 12,2 C 97 % 1009,7 hPa 0,2 l/m 0 min 2 min 84 W/m 22,5 km/h (4 Bft) 93,62 %
31.07.2023 09:36 16,5 C 15,6 C 12,2 C 97 % 1009,5 hPa 0,0 l/m 0 min 2 min 75 W/m 38,6 km/h (5 Bft) 95,65 %
31.07.2023 09:38 16,5 C 15,6 C 12,2 C 97 % 1009,6 hPa 0,0 l/m 0 min 2 min 74 W/m 25,7 km/h (4 Bft) 95,74 %
31.07.2023 09:40 16,5 C 15,6 C 12,2 C 97 % 1009,7 hPa 0,0 l/m 0 min 0 min 75 W/m 22,5 km/h (4 Bft) 100,00 %
31.07.2023 09:42 16,5 C 15,6 C 12,2 C 97 % 1009,6 hPa 0,0 l/m 0 min 2 min 71 W/m 19,3 km/h (3 Bft) 100,00 %
31.07.2023 09:44 16,5 C 15,6 C 12,2 C 97 % 1009,7 hPa 0,2 l/m 0 min 0 min 77 W/m 48,3 km/h (6 Bft) 100,00 %
31.07.2023 09:46 16,4 C 15,0 C 11,7 C 97 % 1009,7 hPa 0,0 l/m 0 min 0 min 80 W/m 25,7 km/h (4 Bft) 100,00 %
31.07.2023 09:48 16,4 C 15,0 C 11,7 C 97 % 1009,7 hPa 0,0 l/m 0 min 2 min 89 W/m 25,7 km/h (4 Bft) 100,00 %
31.07.2023 09:50 16,3 C 15,0 C 11,7 C 97 % 1009,5 hPa 0,0 l/m 0 min 2 min 110 W/m 16,1 km/h (3 Bft) 97,92 %
31.07.2023 09:52 16,3 C 15,6 C 12,2 C 97 % 1009,6 hPa 0,0 l/m 0 min 2 min 118 W/m 22,5 km/h (4 Bft) 100,00 %
31.07.2023 09:54 16,3 C 15,6 C 12,2 C 97 % 1009,5 hPa 0,0 l/m 0 min 2 min 118 W/m 19,3 km/h (3 Bft) 100,00 %
31.07.2023 09:56 16,3 C 15,6 C 12,2 C 97 % 1009,4 hPa 0,0 l/m 0 min 2 min 120 W/m 29,0 km/h (5 Bft) 100,00 %
31.07.2023 09:58 16,3 C 15,6 C 12,2 C 97 % 1009,3 hPa 0,0 l/m 0 min 0 min 151 W/m 29,0 km/h (5 Bft) 100,00 %
31.07.2023 10:00 16,3 C 15,6 C 12,2 C 97 % 1009,4 hPa 0,0 l/m 0 min 0 min 168 W/m 22,5 km/h (4 Bft) 97,83 %
31.07.2023 10:02 16,4 C 15,6 C 12,2 C 97 % 1009,3 hPa 0,0 l/m 0 min 0 min 171 W/m 25,7 km/h (4 Bft) 97,87 %
31.07.2023 10:04 16,4 C 15,6 C 12,2 C 97 % 1009,3 hPa 0,0 l/m 0 min 0 min 173 W/m 35,4 km/h (5 Bft) 97,96 %
31.07.2023 10:06 16,4 C 15,6 C 12,2 C 97 % 1009,3 hPa 0,0 l/m 0 min 0 min 161 W/m 29,0 km/h (5 Bft) 95,74 %
31.07.2023 10:08 16,4 C 16,1 C 12,2 C 97 % 1009,2 hPa 0,0 l/m 0 min 0 min 156 W/m 16,1 km/h (3 Bft) 97,87 %
31.07.2023 10:10 16,5 C 16,1 C 12,2 C 97 % 1009,1 hPa 0,0 l/m 0 min 0 min 167 W/m 29,0 km/h (5 Bft) 95,74 %
31.07.2023 10:12 16,5 C 16,1 C 12,2 C 97 % 1009,2 hPa 0,0 l/m 0 min 0 min 118 W/m 19,3 km/h (3 Bft) 95,74 %
31.07.2023 10:14 16,5 C 16,1 C 12,2 C 97 % 1009,1 hPa 0,0 l/m 0 min 0 min 78 W/m 22,5 km/h (4 Bft) 97,83 %
31.07.2023 10:16 16,5 C 16,1 C 12,2 C 97 % 1009,1 hPa 0,0 l/m 0 min 0 min 114 W/m 19,3 km/h (3 Bft) 97,87 %
31.07.2023 10:18 16,5 C 16,1 C 12,2 C 97 % 1009,1 hPa 0,0 l/m 0 min 0 min 162 W/m 22,5 km/h (4 Bft) 97,87 %
31.07.2023 10:20 16,5 C 16,1 C 12,2 C 97 % 1009,1 hPa 0,0 l/m 0 min 0 min 119 W/m 25,7 km/h (4 Bft) 97,87 %
31.07.2023 10:22 16,5 C 16,1 C 12,2 C 97 % 1009,1 hPa 0,0 l/m 0 min 0 min 109 W/m 22,5 km/h (4 Bft) 97,14 %
31.07.2023 10:24 16,6 C 16,1 C 12,2 C 97 % 1009,2 hPa 0,0 l/m 0 min 0 min 80 W/m 25,7 km/h (4 Bft) 97,87 %
31.07.2023 10:26 16,6 C 16,1 C 12,2 C 97 % 1009,1 hPa 0,0 l/m 0 min 2 min 121 W/m 22,5 km/h (4 Bft) 97,87 %
31.07.2023 10:28 16,5 C 16,1 C 12,2 C 97 % 1009,1 hPa 0,0 l/m 0 min 2 min 153 W/m 41,8 km/h (6 Bft) 95,74 %
31.07.2023 10:30 16,4 C 16,1 C 12,2 C 97 % 1009,0 hPa 0,0 l/m 0 min 2 min 143 W/m 22,5 km/h (4 Bft) 95,65 %
31.07.2023 10:32 16,4 C 16,1 C 11,7 C 97 % 1009,0 hPa 0,0 l/m 0 min 2 min 133 W/m 25,7 km/h (4 Bft) 96,61 %
31.07.2023 10:34 16,4 C 16,1 C 11,7 C 97 % 1009,0 hPa 0,0 l/m 0 min 0 min 125 W/m 22,5 km/h (4 Bft) 97,87 %
31.07.2023 10:36 16,4 C 16,1 C 12,2 C 97 % 1009,0 hPa 0,0 l/m 0 min 0 min 163 W/m 29,0 km/h (5 Bft) 97,87 %
31.07.2023 10:38 16,4 C 16,1 C 12,2 C 97 % 1009,0 hPa 0,0 l/m 0 min 0 min 182 W/m 22,5 km/h (4 Bft) 97,87 %
31.07.2023 10:40 16,4 C 16,1 C 12,2 C 97 % 1008,9 hPa 0,0 l/m 0 min 0 min 170 W/m 29,0 km/h (5 Bft) 97,14 %
31.07.2023 10:42 16,4 C 16,1 C 12,2 C 97 % 1009,0 hPa 0,0 l/m 0 min 2 min 119 W/m 22,5 km/h (4 Bft) 97,87 %
31.07.2023 10:44 16,5 C 16,1 C 12,2 C 97 % 1009,0 hPa 0,0 l/m 0 min 0 min 134 W/m 16,1 km/h (3 Bft) 97,83 %
31.07.2023 10:46 16,6 C 16,1 C 12,2 C 97 % 1009,0 hPa 0,0 l/m 0 min 0 min 104 W/m 19,3 km/h (3 Bft) 97,87 %
31.07.2023 10:48 16,6 C 16,1 C 12,2 C 97 % 1008,9 hPa 0,0 l/m 0 min 0 min 127 W/m 29,0 km/h (5 Bft) 100,00 %
31.07.2023 10:50 16,6 C 16,1 C 12,2 C 97 % 1009,0 hPa 0,0 l/m 0 min 0 min 148 W/m 32,2 km/h (5 Bft) 97,87 %
31.07.2023 10:52 16,6 C 16,1 C 12,2 C 97 % 1009,0 hPa 0,0 l/m 0 min 2 min 138 W/m 25,7 km/h (4 Bft) 100,00 %
31.07.2023 10:54 16,7 C 16,1 C 12,2 C 97 % 1009,0 hPa 0,0 l/m 0 min 2 min 111 W/m 32,2 km/h (5 Bft) 100,00 %
31.07.2023 10:56 16,7 C 16,1 C 12,2 C 97 % 1009,0 hPa 0,0 l/m 0 min 2 min 106 W/m 19,3 km/h (3 Bft) 97,87 %
31.07.2023 10:58 16,7 C 16,1 C 12,2 C 97 % 1009,0 hPa 0,0 l/m 0 min 2 min 88 W/m 25,7 km/h (4 Bft) 97,83 %
31.07.2023 11:00 16,7 C 16,1 C 12,2 C 97 % 1009,1 hPa 0,0 l/m 0 min 2 min 101 W/m 19,3 km/h (3 Bft) 97,87 %
31.07.2023 11:02 16,7 C 16,1 C 12,2 C 97 % 1009,0 hPa 0,0 l/m 0 min 2 min 111 W/m 29,0 km/h (5 Bft) 100,00 %
31.07.2023 11:04 16,7 C 16,1 C 12,2 C 97 % 1009,1 hPa 0,0 l/m 0 min 2 min 96 W/m 29,0 km/h (5 Bft) 95,92 %
31.07.2023 11:06 16,7 C 16,1 C 12,2 C 97 % 1009,1 hPa 0,0 l/m 0 min 2 min 71 W/m 19,3 km/h (3 Bft) 98,28 %
31.07.2023 11:08 16,7 C 16,1 C 12,2 C 97 % 1009,1 hPa 0,0 l/m 0 min 2 min 60 W/m 22,5 km/h (4 Bft) 97,87 %
31.07.2023 11:10 16,7 C 16,1 C 12,2 C 97 % 1009,1 hPa 0,0 l/m 0 min 2 min 58 W/m 19,3 km/h (3 Bft) 94,29 %
31.07.2023 11:12 16,6 C 16,1 C 12,2 C 97 % 1009,1 hPa 0,0 l/m 0 min 2 min 90 W/m 35,4 km/h (5 Bft) 93,62 %
31.07.2023 11:14 16,7 C 16,1 C 12,2 C 97 % 1009,1 hPa 0,0 l/m 0 min 2 min 115 W/m 19,3 km/h (3 Bft) 97,87 %
31.07.2023 11:16 16,7 C 16,1 C 12,2 C 97 % 1009,1 hPa 0,0 l/m 0 min 2 min 146 W/m 16,1 km/h (3 Bft) 97,87 %
31.07.2023 11:18 16,7 C 16,1 C 12,2 C 97 % 1009,1 hPa 0,2 l/m 0 min 2 min 152 W/m 22,5 km/h (4 Bft) 97,87 %
31.07.2023 11:20 16,7 C 16,1 C 12,2 C 97 % 1009,1 hPa 0,0 l/m 0 min 2 min 147 W/m 25,7 km/h (4 Bft) 97,87 %
31.07.2023 11:22 16,7 C 16,1 C 12,8 C 97 % 1009,0 hPa 0,2 l/m 0 min 2 min 126 W/m 19,3 km/h (3 Bft) 97,83 %
31.07.2023 11:24 16,7 C 16,1 C 12,8 C 98 % 1009,0 hPa 0,0 l/m 0 min 2 min 106 W/m 16,1 km/h (3 Bft) 97,87 %
31.07.2023 11:26 16,8 C 16,1 C 12,8 C 98 % 1009,0 hPa 0,0 l/m 0 min 0 min 111 W/m 19,3 km/h (3 Bft) 97,87 %
31.07.2023 11:28 16,7 C 16,1 C 12,8 C 98 % 1009,0 hPa 0,2 l/m 0 min 0 min 151 W/m 22,5 km/h (4 Bft) 95,74 %
31.07.2023 11:30 16,7 C 16,1 C 12,8 C 98 % 1009,0 hPa 0,0 l/m 0 min 0 min 144 W/m 16,1 km/h (3 Bft) 95,74 %
31.07.2023 11:32 16,8 C 16,1 C 12,8 C 98 % 1009,0 hPa 0,2 l/m 0 min 2 min 149 W/m 19,3 km/h (3 Bft) 95,74 %
31.07.2023 11:34 16,8 C 16,1 C 12,8 C 98 % 1008,9 hPa 0,0 l/m 0 min 2 min 137 W/m 22,5 km/h (4 Bft) 95,74 %
31.07.2023 11:36 16,8 C 16,1 C 12,8 C 98 % 1008,9 hPa 0,0 l/m 0 min 0 min 109 W/m 29,0 km/h (5 Bft) 97,87 %
31.07.2023 11:38 16,7 C 16,1 C 12,8 C 98 % 1008,9 hPa 0,0 l/m 0 min 0 min 114 W/m 29,0 km/h (5 Bft) 97,83 %
31.07.2023 11:40 16,8 C 16,1 C 12,8 C 98 % 1008,9 hPa 0,0 l/m 0 min 0 min 167 W/m 22,5 km/h (4 Bft) 97,87 %
31.07.2023 11:42 16,8 C 16,1 C 12,8 C 98 % 1008,8 hPa 0,0 l/m 0 min 0 min 196 W/m 19,3 km/h (3 Bft) 95,74 %
31.07.2023 11:44 16,8 C 16,1 C 12,8 C 98 % 1008,8 hPa 0,2 l/m 0 min 2 min 156 W/m 29,0 km/h (5 Bft) 100,00 %
31.07.2023 11:46 16,8 C 16,1 C 12,8 C 98 % 1008,9 hPa 0,0 l/m 0 min 2 min 166 W/m 19,3 km/h (3 Bft) 100,00 %
31.07.2023 11:48 16,8 C 16,1 C 12,8 C 98 % 1008,7 hPa 0,2 l/m 0 min 2 min 131 W/m 29,0 km/h (5 Bft) 100,00 %
31.07.2023 11:50 16,8 C 16,1 C 12,8 C 98 % 1008,8 hPa 0,0 l/m 0 min 2 min 87 W/m 22,5 km/h (4 Bft) 97,83 %
31.07.2023 11:52 16,7 C 15,6 C 12,8 C 98 % 1008,8 hPa 0,0 l/m 0 min 0 min 94 W/m 19,3 km/h (3 Bft) 97,87 %
31.07.2023 11:54 16,7 C 15,6 C 12,8 C 98 % 1008,8 hPa 0,0 l/m 0 min 0 min 110 W/m 29,0 km/h (5 Bft) 100,00 %
31.07.2023 11:56 16,7 C 15,6 C 12,8 C 98 % 1008,8 hPa 0,0 l/m 0 min 0 min 95 W/m 19,3 km/h (3 Bft) 100,00 %
31.07.2023 11:58 16,8 C 15,6 C 12,8 C 98 % 1008,8 hPa 0,0 l/m 0 min 0 min 98 W/m 19,3 km/h (3 Bft) 100,00 %
31.07.2023 12:00 16,8 C 16,1 C 12,8 C 98 % 1008,8 hPa 0,0 l/m 0 min 0 min 100 W/m 12,9 km/h (3 Bft) 97,87 %
31.07.2023 12:02 16,8 C 15,6 C 12,8 C 98 % 1008,8 hPa 0,0 l/m 0 min 0 min 104 W/m 19,3 km/h (3 Bft) 97,87 %
31.07.2023 12:04 16,8 C 16,1 C 12,8 C 98 % 1008,8 hPa 0,0 l/m 0 min 0 min 106 W/m 25,7 km/h (4 Bft) 97,92 %
31.07.2023 12:08 16,7 C 16,1 C 12,8 C 98 % 1008,8 hPa 0,0 l/m 0 min 0 min 129 W/m 25,7 km/h (4 Bft) 97,89 %
31.07.2023 12:10 16,8 C 16,1 C 12,8 C 98 % 1008,7 hPa 0,0 l/m 0 min 0 min 136 W/m 32,2 km/h (5 Bft) 51,16 %
31.07.2023 12:12 16,8 C 16,1 C 12,8 C 98 % 1008,8 hPa 0,0 l/m 0 min 0 min 133 W/m 12,9 km/h (3 Bft) 95,74 %
31.07.2023 12:14 16,8 C 16,1 C 12,8 C 98 % 1008,7 hPa 0,0 l/m 0 min 0 min 161 W/m 16,1 km/h (3 Bft) 97,87 %
31.07.2023 12:16 16,9 C 16,1 C 12,8 C 98 % 1008,7 hPa 0,0 l/m 0 min 0 min 195 W/m 25,7 km/h (4 Bft) 97,83 %
31.07.2023 12:18 16,9 C 16,7 C 12,8 C 98 % 1008,7 hPa 0,0 l/m 0 min 0 min 199 W/m 16,1 km/h (3 Bft) 97,87 %
31.07.2023 12:20 16,9 C 16,7 C 12,8 C 98 % 1008,7 hPa 0,0 l/m 0 min 0 min 171 W/m 19,3 km/h (3 Bft) 97,87 %
31.07.2023 12:22 16,9 C 16,7 C 12,8 C 98 % 1008,7 hPa 0,0 l/m 0 min 0 min 199 W/m 29,0 km/h (5 Bft) 97,87 %
31.07.2023 12:24 16,9 C 16,7 C 12,8 C 98 % 1008,7 hPa 0,0 l/m 0 min 0 min 171 W/m 25,7 km/h (4 Bft) 97,87 %
31.07.2023 12:26 17,0 C 16,7 C 12,8 C 98 % 1008,8 hPa 0,0 l/m 0 min 0 min 166 W/m 25,7 km/h (4 Bft) 97,87 %
31.07.2023 12:28 17,0 C 16,7 C 12,8 C 98 % 1008,8 hPa 0,0 l/m 0 min 0 min 176 W/m 19,3 km/h (3 Bft) 97,83 %
31.07.2023 12:30 17,1 C 16,7 C 12,8 C 98 % 1008,7 hPa 0,0 l/m 0 min 0 min 205 W/m 19,3 km/h (3 Bft) 97,87 %
31.07.2023 12:32 17,1 C 17,2 C 12,8 C 98 % 1008,7 hPa 0,0 l/m 0 min 0 min 211 W/m 12,9 km/h (3 Bft) 97,87 %
31.07.2023 12:34 17,1 C 17,2 C 12,8 C 98 % 1008,7 hPa 0,0 l/m 0 min 0 min 194 W/m 29,0 km/h (5 Bft) 93,62 %
31.07.2023 12:36 17,1 C 17,2 C 12,8 C 98 % 1008,7 hPa 0,0 l/m 0 min 0 min 200 W/m 22,5 km/h (4 Bft) 97,87 %
31.07.2023 12:38 17,2 C 17,2 C 13,3 C 98 % 1008,7 hPa 0,0 l/m 0 min 0 min 210 W/m 19,3 km/h (3 Bft) 97,87 %
31.07.2023 12:40 17,2 C 17,2 C 13,3 C 98 % 1008,7 hPa 0,0 l/m 0 min 0 min 180 W/m 19,3 km/h (3 Bft) 97,87 %
31.07.2023 12:42 17,3 C 17,2 C 13,3 C 98 % 1008,7 hPa 0,0 l/m 0 min 0 min 163 W/m 19,3 km/h (3 Bft) 100,00 %
31.07.2023 12:44 17,3 C 17,2 C 12,8 C 98 % 1008,8 hPa 0,0 l/m 0 min 0 min 120 W/m 25,7 km/h (4 Bft) 97,87 %
31.07.2023 12:46 17,3 C 17,2 C 12,8 C 98 % 1008,7 hPa 0,0 l/m 0 min 0 min 111 W/m 35,4 km/h (5 Bft) 100,00 %
31.07.2023 12:48 17,3 C 17,2 C 12,8 C 98 % 1008,7 hPa 0,0 l/m 0 min 0 min 126 W/m 25,7 km/h (4 Bft) 97,87 %
31.07.2023 12:50 17,3 C 17,2 C 12,8 C 98 % 1008,7 hPa 0,0 l/m 0 min 0 min 135 W/m 22,5 km/h (4 Bft) 95,74 %
31.07.2023 12:52 17,3 C 17,2 C 12,8 C 98 % 1008,7 hPa 0,0 l/m 0 min 0 min 119 W/m 19,3 km/h (3 Bft) 97,87 %
31.07.2023 12:54 17,3 C 17,2 C 12,8 C 97 % 1008,7 hPa 0,0 l/m 0 min 0 min 94 W/m 16,1 km/h (3 Bft) 97,83 %
31.07.2023 12:56 17,3 C 17,2 C 12,8 C 97 % 1008,7 hPa 0,0 l/m 0 min 0 min 103 W/m 22,5 km/h (4 Bft) 97,87 %
31.07.2023 12:58 17,3 C 17,2 C 12,8 C 97 % 1008,7 hPa 0,0 l/m 0 min 0 min 121 W/m 19,3 km/h (3 Bft) 95,74 %
31.07.2023 13:00 17,3 C 17,2 C 12,8 C 97 % 1008,6 hPa 0,0 l/m 0 min 0 min 187 W/m 22,5 km/h (4 Bft) 95,74 %
31.07.2023 13:02 17,3 C 17,2 C 12,8 C 97 % 1008,7 hPa 0,0 l/m 0 min 0 min 166 W/m 22,5 km/h (4 Bft) 95,74 %
31.07.2023 13:04 17,4 C 17,2 C 12,8 C 97 % 1008,6 hPa 0,0 l/m 0 min 0 min 145 W/m 19,3 km/h (3 Bft) 93,75 %
31.07.2023 13:06 17,4 C 17,2 C 12,8 C 97 % 1008,5 hPa 0,0 l/m 0 min 0 min 151 W/m 19,3 km/h (3 Bft) 95,92 %
31.07.2023 13:08 17,4 C 17,2 C 12,8 C 97 % 1008,6 hPa 0,0 l/m 0 min 0 min 180 W/m 22,5 km/h (4 Bft) 95,65 %
31.07.2023 13:10 17,5 C 17,2 C 12,8 C 97 % 1008,6 hPa 0,0 l/m 0 min 0 min 170 W/m 35,4 km/h (5 Bft) 95,74 %
31.07.2023 13:12 17,5 C 17,2 C 12,8 C 97 % 1008,6 hPa 0,0 l/m 0 min 0 min 162 W/m 32,2 km/h (5 Bft) 95,74 %
31.07.2023 13:14 17,5 C 17,2 C 12,8 C 97 % 1008,6 hPa 0,0 l/m 0 min 0 min 173 W/m 22,5 km/h (4 Bft) 91,49 %
31.07.2023 13:16 17,6 C 17,2 C 12,8 C 96 % 1008,6 hPa 0,0 l/m 0 min 0 min 137 W/m 22,5 km/h (4 Bft) 95,74 %
31.07.2023 13:18 17,6 C 17,2 C 12,8 C 96 % 1008,7 hPa 0,0 l/m 0 min 0 min 145 W/m 25,7 km/h (4 Bft) 93,62 %
31.07.2023 13:20 17,6 C 17,2 C 12,8 C 96 % 1008,6 hPa 0,0 l/m 0 min 0 min 138 W/m 22,5 km/h (4 Bft) 95,65 %
31.07.2023 13:22 17,6 C 17,2 C 12,8 C 96 % 1008,6 hPa 0,0 l/m 0 min 0 min 136 W/m 22,5 km/h (4 Bft) 93,62 %
31.07.2023 13:24 17,6 C 17,2 C 12,8 C 96 % 1008,6 hPa 0,0 l/m 0 min 0 min 117 W/m 19,3 km/h (3 Bft) 95,74 %
31.07.2023 13:26 17,7 C 17,2 C 12,8 C 96 % 1008,5 hPa 0,0 l/m 0 min 0 min 124 W/m 19,3 km/h (3 Bft) 95,74 %
31.07.2023 13:28 17,7 C 17,2 C 12,8 C 96 % 1008,6 hPa 0,0 l/m 0 min 0 min 128 W/m 19,3 km/h (3 Bft) 95,74 %
31.07.2023 13:30 17,7 C 17,2 C 12,8 C 95 % 1008,6 hPa 0,0 l/m 0 min 0 min 147 W/m 19,3 km/h (3 Bft) 95,74 %
31.07.2023 13:32 17,7 C 17,8 C 12,8 C 95 % 1008,5 hPa 0,0 l/m 0 min 0 min 158 W/m 12,9 km/h (3 Bft) 93,62 %
31.07.2023 13:34 17,8 C 17,2 C 12,8 C 95 % 1008,5 hPa 0,0 l/m 0 min 0 min 142 W/m 22,5 km/h (4 Bft) 95,65 %
31.07.2023 13:36 17,8 C 17,2 C 12,8 C 95 % 1008,5 hPa 0,0 l/m 0 min 0 min 127 W/m 16,1 km/h (3 Bft) 100,00 %
31.07.2023 13:38 17,8 C 17,2 C 12,8 C 95 % 1008,5 hPa 0,0 l/m 0 min 0 min 120 W/m 12,9 km/h (3 Bft) 100,00 %
31.07.2023 13:40 17,8 C 17,2 C 13,3 C 95 % 1008,5 hPa 0,0 l/m 0 min 0 min 108 W/m 12,9 km/h (3 Bft) 97,87 %
31.07.2023 13:42 17,9 C 17,8 C 12,8 C 95 % 1008,4 hPa 0,0 l/m 0 min 0 min 103 W/m 16,1 km/h (3 Bft) 100,00 %
31.07.2023 13:44 17,8 C 17,8 C 12,8 C 95 % 1008,4 hPa 0,0 l/m 0 min 0 min 130 W/m 25,7 km/h (4 Bft) 100,00 %
31.07.2023 13:46 17,9 C 17,8 C 12,8 C 94 % 1008,5 hPa 0,0 l/m 0 min 0 min 159 W/m 16,1 km/h (3 Bft) 100,00 %
31.07.2023 13:48 17,9 C 17,8 C 12,8 C 94 % 1008,4 hPa 0,0 l/m 0 min 0 min 120 W/m 29,0 km/h (5 Bft) 100,00 %
31.07.2023 13:50 17,9 C 17,8 C 12,8 C 94 % 1008,4 hPa 0,0 l/m 0 min 0 min 99 W/m 19,3 km/h (3 Bft) 97,87 %
31.07.2023 13:52 17,9 C 17,8 C 12,8 C 94 % 1008,4 hPa 0,0 l/m 0 min 0 min 107 W/m 22,5 km/h (4 Bft) 100,00 %
31.07.2023 13:54 17,9 C 17,8 C 12,8 C 94 % 1008,4 hPa 0,0 l/m 0 min 0 min 98 W/m 25,7 km/h (4 Bft) 100,00 %
31.07.2023 13:56 17,9 C 17,8 C 12,8 C 94 % 1008,4 hPa 0,0 l/m 0 min 0 min 92 W/m 38,6 km/h (5 Bft) 100,00 %
31.07.2023 13:58 18,0 C 17,8 C 12,8 C 94 % 1008,5 hPa 0,0 l/m 0 min 0 min 90 W/m 16,1 km/h (3 Bft) 100,00 %
31.07.2023 14:00 18,0 C 17,8 C 12,8 C 94 % 1008,4 hPa 0,0 l/m 0 min 0 min 98 W/m 19,3 km/h (3 Bft) 100,00 %
31.07.2023 14:02 18,0 C 17,8 C 12,8 C 94 % 1008,4 hPa 0,0 l/m 0 min 0 min 92 W/m 22,5 km/h (4 Bft) 100,00 %
31.07.2023 14:04 18,1 C 17,8 C 12,8 C 94 % 1008,4 hPa 0,0 l/m 0 min 0 min 94 W/m 29,0 km/h (5 Bft) 100,00 %
31.07.2023 14:06 18,1 C 17,8 C 12,8 C 93 % 1008,4 hPa 0,0 l/m 0 min 0 min 73 W/m 22,5 km/h (4 Bft) 100,00 %
31.07.2023 14:08 18,1 C 17,8 C 12,8 C 93 % 1008,4 hPa 0,0 l/m 0 min 0 min 64 W/m 16,1 km/h (3 Bft) 100,00 %
31.07.2023 14:10 18,1 C 17,2 C 12,8 C 93 % 1008,4 hPa 0,0 l/m 0 min 0 min 71 W/m 22,5 km/h (4 Bft) 100,00 %
31.07.2023 14:12 18,1 C 17,8 C 12,8 C 93 % 1008,4 hPa 0,0 l/m 0 min 0 min 66 W/m 19,3 km/h (3 Bft) 100,00 %
31.07.2023 14:14 18,1 C 17,8 C 12,8 C 93 % 1008,4 hPa 0,0 l/m 0 min 0 min 75 W/m 19,3 km/h (3 Bft) 100,00 %
31.07.2023 14:16 18,1 C 17,8 C 12,8 C 93 % 1008,5 hPa 0,0 l/m 0 min 0 min 84 W/m 12,9 km/h (3 Bft) 100,00 %
31.07.2023 14:18 18,1 C 17,8 C 12,8 C 93 % 1008,4 hPa 0,0 l/m 0 min 0 min 79 W/m 12,9 km/h (3 Bft) 100,00 %
31.07.2023 14:20 18,1 C 17,8 C 12,8 C 93 % 1008,4 hPa 0,0 l/m 0 min 0 min 80 W/m 19,3 km/h (3 Bft) 100,00 %
31.07.2023 14:22 18,1 C 17,8 C 12,8 C 93 % 1008,4 hPa 0,0 l/m 0 min 0 min 89 W/m 12,9 km/h (3 Bft) 100,00 %
31.07.2023 14:24 18,1 C 17,2 C 12,8 C 93 % 1008,5 hPa 0,0 l/m 0 min 2 min 98 W/m 22,5 km/h (4 Bft) 100,00 %
31.07.2023 14:26 18,1 C 17,2 C 12,8 C 93 % 1008,4 hPa 0,0 l/m 0 min 2 min 83 W/m 19,3 km/h (3 Bft) 97,87 %
31.07.2023 14:28 18,1 C 17,2 C 13,3 C 93 % 1008,3 hPa 0,0 l/m 0 min 2 min 102 W/m 16,1 km/h (3 Bft) 100,00 %
31.07.2023 14:30 18,1 C 17,2 C 13,3 C 94 % 1008,4 hPa 0,0 l/m 0 min 2 min 98 W/m 16,1 km/h (3 Bft) 100,00 %
31.07.2023 14:32 18,1 C 17,2 C 13,3 C 94 % 1008,3 hPa 0,0 l/m 0 min 2 min 113 W/m 29,0 km/h (5 Bft) 97,83 %
31.07.2023 14:34 18,0 C 17,2 C 13,3 C 94 % 1008,3 hPa 0,0 l/m 0 min 2 min 121 W/m 22,5 km/h (4 Bft) 100,00 %
31.07.2023 14:36 18,0 C 17,2 C 12,8 C 94 % 1008,3 hPa 0,0 l/m 0 min 0 min 108 W/m 22,5 km/h (4 Bft) 97,87 %
31.07.2023 14:38 18,0 C 17,2 C 13,3 C 94 % 1008,4 hPa 0,0 l/m 0 min 0 min 109 W/m 25,7 km/h (4 Bft) 100,00 %
31.07.2023 14:40 17,9 C 17,2 C 13,3 C 95 % 1008,4 hPa 0,0 l/m 0 min 0 min 113 W/m 22,5 km/h (4 Bft) 100,00 %
31.07.2023 14:42 17,9 C 17,2 C 13,3 C 95 % 1008,4 hPa 0,0 l/m 0 min 0 min 109 W/m 19,3 km/h (3 Bft) 100,00 %
31.07.2023 14:44 17,9 C 17,2 C 13,3 C 95 % 1008,4 hPa 0,0 l/m 0 min 0 min 114 W/m 16,1 km/h (3 Bft) 97,83 %
31.07.2023 14:46 17,9 C 17,8 C 13,3 C 95 % 1008,2 hPa 0,0 l/m 0 min 0 min 152 W/m 12,9 km/h (3 Bft) 95,74 %
31.07.2023 14:48 18,0 C 17,8 C 13,3 C 95 % 1008,2 hPa 0,0 l/m 0 min 0 min 175 W/m 22,5 km/h (4 Bft) 97,87 %
31.07.2023 14:50 18,0 C 17,8 C 13,3 C 95 % 1008,3 hPa 0,0 l/m 0 min 0 min 98 W/m 22,5 km/h (4 Bft) 97,87 %
31.07.2023 14:52 18,0 C 17,8 C 13,3 C 95 % 1008,2 hPa 0,0 l/m 0 min 0 min 103 W/m 12,9 km/h (3 Bft) 97,87 %
31.07.2023 14:54 18,1 C 17,8 C 13,3 C 95 % 1008,2 hPa 0,0 l/m 0 min 0 min 156 W/m 22,5 km/h (4 Bft) 91,49 %
31.07.2023 14:56 18,1 C 17,8 C 13,3 C 95 % 1008,1 hPa 0,0 l/m 0 min 0 min 201 W/m 25,7 km/h (4 Bft) 97,87 %
31.07.2023 14:58 18,1 C 18,3 C 13,3 C 96 % 1008,0 hPa 0,0 l/m 0 min 0 min 262 W/m 19,3 km/h (3 Bft) 95,65 %
31.07.2023 15:00 18,2 C 18,3 C 13,3 C 96 % 1007,9 hPa 0,0 l/m 0 min 0 min 212 W/m 16,1 km/h (3 Bft) 93,62 %
31.07.2023 15:02 18,2 C 18,3 C 13,3 C 95 % 1008,0 hPa 0,0 l/m 0 min 0 min 202 W/m 22,5 km/h (4 Bft) 95,74 %
31.07.2023 15:04 18,2 C 18,3 C 13,3 C 95 % 1007,9 hPa 0,0 l/m 0 min 0 min 187 W/m 19,3 km/h (3 Bft) 95,74 %
31.07.2023 15:06 18,3 C 18,3 C 13,3 C 95 % 1007,8 hPa 0,0 l/m 0 min 0 min 166 W/m 16,1 km/h (3 Bft) 95,83 %
31.07.2023 15:08 18,3 C 18,3 C 13,3 C 95 % 1007,8 hPa 0,0 l/m 0 min 0 min 123 W/m 12,9 km/h (3 Bft) 93,62 %
31.07.2023 15:10 18,3 C 17,8 C 13,3 C 95 % 1007,8 hPa 0,0 l/m 0 min 0 min 96 W/m 19,3 km/h (3 Bft) 94,59 %
31.07.2023 15:12 18,3 C 17,8 C 13,3 C 95 % 1007,8 hPa 0,0 l/m 0 min 0 min 88 W/m 12,9 km/h (3 Bft) 95,74 %
31.07.2023 15:14 18,3 C 17,8 C 13,3 C 95 % 1007,8 hPa 0,0 l/m 0 min 0 min 177 W/m 22,5 km/h (4 Bft) 95,74 %
31.07.2023 15:16 18,3 C 18,3 C 13,3 C 95 % 1007,7 hPa 0,0 l/m 0 min 2 min 172 W/m 25,7 km/h (4 Bft) 95,74 %
31.07.2023 15:18 18,4 C 18,3 C 13,9 C 95 % 1007,6 hPa 0,0 l/m 0 min 0 min 174 W/m 19,3 km/h (3 Bft) 95,74 %
31.07.2023 15:20 18,4 C 18,3 C 13,9 C 95 % 1007,6 hPa 0,0 l/m 0 min 0 min 206 W/m 19,3 km/h (3 Bft) 95,74 %
31.07.2023 15:22 18,4 C 18,3 C 13,9 C 95 % 1007,6 hPa 0,0 l/m 0 min 0 min 233 W/m 16,1 km/h (3 Bft) 95,65 %
31.07.2023 15:24 18,5 C 18,3 C 13,9 C 95 % 1007,6 hPa 0,0 l/m 0 min 2 min 225 W/m 22,5 km/h (4 Bft) 95,74 %
31.07.2023 15:26 18,5 C 18,3 C 13,9 C 95 % 1007,5 hPa 0,0 l/m 0 min 0 min 190 W/m 19,3 km/h (3 Bft) 95,74 %
31.07.2023 15:28 18,6 C 18,9 C 13,9 C 95 % 1007,6 hPa 0,0 l/m 0 min 2 min 200 W/m 19,3 km/h (3 Bft) 95,74 %
31.07.2023 15:30 18,6 C 18,9 C 13,9 C 95 % 1007,5 hPa 0,0 l/m 0 min 0 min 184 W/m 22,5 km/h (4 Bft) 91,49 %
31.07.2023 15:32 18,7 C 18,9 C 13,9 C 95 % 1007,5 hPa 0,0 l/m 0 min 0 min 177 W/m 32,2 km/h (5 Bft) 95,74 %
31.07.2023 15:34 18,7 C 18,9 C 13,9 C 94 % 1007,4 hPa 0,0 l/m 0 min 0 min 246 W/m 19,3 km/h (3 Bft) 97,87 %
31.07.2023 15:36 18,8 C 19,4 C 13,9 C 94 % 1007,4 hPa 0,0 l/m 0 min 0 min 300 W/m 12,9 km/h (3 Bft) 95,65 %
31.07.2023 15:38 18,8 C 19,4 C 13,9 C 94 % 1007,3 hPa 0,0 l/m 0 min 0 min 271 W/m 22,5 km/h (4 Bft) 97,87 %
31.07.2023 15:40 18,9 C 19,4 C 13,9 C 94 % 1007,4 hPa 0,0 l/m 0 min 0 min 214 W/m 16,1 km/h (3 Bft) 97,87 %
31.07.2023 15:42 19,0 C 19,4 C 13,9 C 94 % 1007,3 hPa 0,0 l/m 0 min 0 min 209 W/m 32,2 km/h (5 Bft) 95,74 %
31.07.2023 15:44 19,1 C 19,4 C 13,9 C 93 % 1007,4 hPa 0,0 l/m 0 min 0 min 177 W/m 19,3 km/h (3 Bft) 97,87 %
31.07.2023 15:46 19,1 C 18,9 C 13,9 C 93 % 1007,4 hPa 0,0 l/m 0 min 0 min 132 W/m 29,0 km/h (5 Bft) 97,87 %
31.07.2023 15:48 19,1 C 18,9 C 13,9 C 92 % 1007,4 hPa 0,0 l/m 0 min 0 min 125 W/m 19,3 km/h (3 Bft) 97,87 %
31.07.2023 15:50 19,2 C 18,9 C 13,9 C 92 % 1007,5 hPa 0,0 l/m 0 min 0 min 118 W/m 19,3 km/h (3 Bft) 97,83 %
31.07.2023 15:52 19,2 C 18,9 C 13,3 C 91 % 1007,5 hPa 0,0 l/m 0 min 0 min 80 W/m 22,5 km/h (4 Bft) 97,87 %
31.07.2023 15:54 19,2 C 18,9 C 13,3 C 90 % 1007,6 hPa 0,0 l/m 0 min 0 min 57 W/m 16,1 km/h (3 Bft) 97,87 %
31.07.2023 15:56 19,2 C 18,9 C 13,3 C 90 % 1007,5 hPa 0,0 l/m 0 min 0 min 53 W/m 16,1 km/h (3 Bft) 97,87 %
31.07.2023 15:58 19,2 C 18,9 C 13,3 C 90 % 1007,5 hPa 0,0 l/m 0 min 0 min 57 W/m 22,5 km/h (4 Bft) 97,87 %
31.07.2023 16:00 19,2 C 18,9 C 13,3 C 90 % 1007,6 hPa 0,0 l/m 0 min 0 min 69 W/m 16,1 km/h (3 Bft) 95,74 %
31.07.2023 16:02 19,2 C 18,9 C 13,3 C 90 % 1007,6 hPa 0,0 l/m 0 min 0 min 64 W/m 16,1 km/h (3 Bft) 95,74 %
31.07.2023 16:04 19,2 C 18,3 C 13,9 C 90 % 1007,5 hPa 0,0 l/m 0 min 0 min 54 W/m 22,5 km/h (4 Bft) 97,96 %
31.07.2023 16:06 19,2 C 18,3 C 14,4 C 90 % 1007,5 hPa 0,0 l/m 0 min 0 min 44 W/m 19,3 km/h (3 Bft) 98,31 %
31.07.2023 16:08 19,2 C 18,3 C 14,4 C 90 % 1007,5 hPa 0,0 l/m 0 min 0 min 42 W/m 16,1 km/h (3 Bft) 97,14 %
31.07.2023 16:10 19,2 C 18,3 C 14,4 C 89 % 1007,4 hPa 0,0 l/m 0 min 0 min 42 W/m 12,9 km/h (3 Bft) 97,87 %
31.07.2023 16:12 19,2 C 18,3 C 14,4 C 89 % 1007,4 hPa 0,0 l/m 0 min 0 min 50 W/m 19,3 km/h (3 Bft) 97,87 %
31.07.2023 16:14 19,2 C 18,3 C 14,4 C 90 % 1007,3 hPa 0,0 l/m 0 min 0 min 45 W/m 12,9 km/h (3 Bft) 97,87 %
31.07.2023 16:16 19,2 C 18,3 C 14,4 C 89 % 1007,4 hPa 0,0 l/m 0 min 0 min 38 W/m 25,7 km/h (4 Bft) 100,00 %
31.07.2023 16:18 19,1 C 18,3 C 14,4 C 89 % 1007,4 hPa 0,0 l/m 0 min 0 min 34 W/m 29,0 km/h (5 Bft) 95,65 %
31.07.2023 16:20 19,1 C 18,3 C 14,4 C 89 % 1007,3 hPa 0,0 l/m 0 min 0 min 37 W/m 32,2 km/h (5 Bft) 100,00 %
31.07.2023 16:22 19,1 C 18,3 C 14,4 C 89 % 1007,3 hPa 0,0 l/m 0 min 0 min 37 W/m 25,7 km/h (4 Bft) 100,00 %
31.07.2023 16:24 19,1 C 18,3 C 14,4 C 89 % 1007,3 hPa 0,0 l/m 0 min 0 min 55 W/m 22,5 km/h (4 Bft) 100,00 %
31.07.2023 16:26 19,1 C 18,3 C 14,4 C 90 % 1007,2 hPa 0,0 l/m 0 min 0 min 64 W/m 16,1 km/h (3 Bft) 95,74 %
31.07.2023 16:28 19,1 C 18,3 C 14,4 C 90 % 1007,3 hPa 0,0 l/m 0 min 0 min 75 W/m 38,6 km/h (5 Bft) 100,00 %
31.07.2023 16:30 19,1 C 18,3 C 14,4 C 89 % 1007,3 hPa 0,0 l/m 0 min 2 min 81 W/m 41,8 km/h (6 Bft) 100,00 %
31.07.2023 16:32 19,1 C 18,3 C 14,4 C 89 % 1007,2 hPa 0,0 l/m 0 min 0 min 89 W/m 25,7 km/h (4 Bft) 100,00 %
31.07.2023 16:34 19,1 C 18,3 C 14,4 C 89 % 1007,0 hPa 0,0 l/m 0 min 0 min 88 W/m 29,0 km/h (5 Bft) 100,00 %
31.07.2023 16:36 19,1 C 18,3 C 14,4 C 89 % 1007,1 hPa 0,0 l/m 0 min 0 min 89 W/m 25,7 km/h (4 Bft) 100,00 %
31.07.2023 16:38 19,1 C 18,3 C 15,0 C 89 % 1007,2 hPa 0,0 l/m 0 min 0 min 77 W/m 29,0 km/h (5 Bft) 100,00 %
31.07.2023 16:40 19,1 C 18,3 C 15,0 C 89 % 1007,1 hPa 0,0 l/m 0 min 0 min 66 W/m 32,2 km/h (5 Bft) 100,00 %
31.07.2023 16:42 19,1 C 18,3 C 15,0 C 89 % 1007,0 hPa 0,0 l/m 0 min 0 min 68 W/m 19,3 km/h (3 Bft) 95,74 %
31.07.2023 16:44 19,1 C 18,3 C 15,0 C 89 % 1007,0 hPa 0,0 l/m 0 min 0 min 80 W/m 32,2 km/h (5 Bft) 100,00 %
31.07.2023 16:46 19,1 C 18,9 C 15,0 C 88 % 1007,0 hPa 0,0 l/m 0 min 0 min 109 W/m 19,3 km/h (3 Bft) 95,74 %
31.07.2023 16:48 19,2 C 18,9 C 15,0 C 88 % 1007,2 hPa 0,0 l/m 0 min 0 min 115 W/m 25,7 km/h (4 Bft) 100,00 %
31.07.2023 16:50 19,2 C 18,9 C 15,0 C 88 % 1007,1 hPa 0,0 l/m 0 min 0 min 102 W/m 29,0 km/h (5 Bft) 100,00 %
31.07.2023 16:52 19,2 C 18,9 C 15,0 C 88 % 1007,0 hPa 0,0 l/m 0 min 0 min 92 W/m 19,3 km/h (3 Bft) 100,00 %
31.07.2023 16:54 19,2 C 18,9 C 15,0 C 88 % 1007,0 hPa 0,0 l/m 0 min 0 min 81 W/m 16,1 km/h (3 Bft) 100,00 %
31.07.2023 16:56 19,3 C 18,9 C 15,0 C 88 % 1007,0 hPa 0,0 l/m 0 min 0 min 77 W/m 16,1 km/h (3 Bft) 97,83 %
31.07.2023 16:58 19,3 C 18,9 C 15,0 C 88 % 1006,9 hPa 0,0 l/m 0 min 0 min 90 W/m 35,4 km/h (5 Bft) 97,96 %
31.07.2023 17:00 19,3 C 18,9 C 15,0 C 87 % 1006,8 hPa 0,0 l/m 0 min 0 min 125 W/m 32,2 km/h (5 Bft) 97,87 %
31.07.2023 17:02 19,3 C 18,9 C 15,0 C 87 % 1007,0 hPa 0,0 l/m 0 min 0 min 112 W/m 35,4 km/h (5 Bft) 95,74 %
31.07.2023 17:04 19,3 C 18,9 C 15,0 C 87 % 1007,0 hPa 0,0 l/m 0 min 0 min 103 W/m 19,3 km/h (3 Bft) 97,87 %
31.07.2023 17:06 19,4 C 18,9 C 15,0 C 87 % 1007,0 hPa 0,0 l/m 0 min 0 min 91 W/m 16,1 km/h (3 Bft) 97,96 %
31.07.2023 17:08 19,4 C 18,9 C 15,6 C 87 % 1007,0 hPa 0,0 l/m 0 min 0 min 81 W/m 25,7 km/h (4 Bft) 97,83 %
31.07.2023 17:10 19,4 C 18,9 C 15,6 C 87 % 1007,0 hPa 0,0 l/m 0 min 0 min 76 W/m 32,2 km/h (5 Bft) 97,87 %
31.07.2023 17:12 19,4 C 18,9 C 15,6 C 87 % 1007,0 hPa 0,0 l/m 0 min 0 min 74 W/m 19,3 km/h (3 Bft) 97,87 %
31.07.2023 17:14 19,4 C 18,9 C 15,6 C 87 % 1006,9 hPa 0,0 l/m 0 min 0 min 71 W/m 19,3 km/h (3 Bft) 95,74 %
31.07.2023 17:16 19,4 C 18,9 C 15,0 C 87 % 1006,9 hPa 0,0 l/m 0 min 0 min 56 W/m 16,1 km/h (3 Bft) 95,74 %
31.07.2023 17:18 19,4 C 18,9 C 15,0 C 87 % 1006,8 hPa 0,0 l/m 0 min 0 min 45 W/m 19,3 km/h (3 Bft) 95,74 %
31.07.2023 17:20 19,4 C 18,9 C 15,0 C 87 % 1006,7 hPa 0,0 l/m 0 min 0 min 40 W/m 35,4 km/h (5 Bft) 97,87 %
31.07.2023 17:22 19,4 C 18,9 C 15,0 C 86 % 1006,8 hPa 0,0 l/m 0 min 0 min 41 W/m 35,4 km/h (5 Bft) 97,87 %
31.07.2023 17:24 19,4 C 18,9 C 15,0 C 86 % 1006,7 hPa 0,0 l/m 0 min 0 min 44 W/m 25,7 km/h (4 Bft) 97,83 %
31.07.2023 17:26 19,4 C 18,9 C 15,0 C 86 % 1006,9 hPa 0,0 l/m 0 min 0 min 51 W/m 29,0 km/h (5 Bft) 97,87 %
31.07.2023 17:28 19,4 C 18,9 C 15,0 C 86 % 1006,6 hPa 0,0 l/m 0 min 0 min 49 W/m 29,0 km/h (5 Bft) 97,87 %
31.07.2023 17:30 19,4 C 18,9 C 15,0 C 86 % 1006,7 hPa 0,0 l/m 0 min 2 min 50 W/m 25,7 km/h (4 Bft) 97,87 %
31.07.2023 17:32 19,4 C 18,9 C 15,0 C 86 % 1006,8 hPa 0,0 l/m 0 min 2 min 49 W/m 19,3 km/h (3 Bft) 97,87 %
31.07.2023 17:34 19,4 C 18,3 C 13,9 C 87 % 1006,8 hPa 0,2 l/m 0 min 2 min 52 W/m 25,7 km/h (4 Bft) 100,00 %
31.07.2023 17:36 19,3 C 17,8 C 13,3 C 87 % 1006,8 hPa 0,0 l/m 0 min 2 min 45 W/m 25,7 km/h (4 Bft) 100,00 %
31.07.2023 17:38 19,3 C 17,8 C 13,3 C 87 % 1006,6 hPa 0,0 l/m 0 min 2 min 51 W/m 25,7 km/h (4 Bft) 100,00 %
31.07.2023 17:40 19,2 C 17,8 C 13,3 C 88 % 1006,6 hPa 0,0 l/m 0 min 2 min 55 W/m 19,3 km/h (3 Bft) 97,87 %
31.07.2023 17:42 19,1 C 17,2 C 13,3 C 89 % 1006,7 hPa 0,0 l/m 0 min 2 min 44 W/m 22,5 km/h (4 Bft) 100,00 %
31.07.2023 17:44 19,0 C 17,8 C 12,8 C 89 % 1006,7 hPa 0,0 l/m 0 min 2 min 37 W/m 25,7 km/h (4 Bft) 100,00 %
31.07.2023 17:46 18,9 C 17,8 C 12,8 C 89 % 1006,7 hPa 0,0 l/m 0 min 2 min 36 W/m 16,1 km/h (3 Bft) 100,00 %
31.07.2023 17:48 18,8 C 17,8 C 12,8 C 89 % 1006,6 hPa 0,2 l/m 0 min 2 min 39 W/m 25,7 km/h (4 Bft) 100,00 %
31.07.2023 17:50 18,8 C 17,2 C 12,8 C 90 % 1006,5 hPa 0,0 l/m 0 min 2 min 39 W/m 19,3 km/h (3 Bft) 97,87 %
31.07.2023 17:52 18,7 C 16,7 C 12,8 C 90 % 1006,6 hPa 0,0 l/m 0 min 2 min 35 W/m 19,3 km/h (3 Bft) 97,87 %
31.07.2023 17:54 18,7 C 16,7 C 12,8 C 90 % 1006,5 hPa 0,0 l/m 0 min 2 min 33 W/m 19,3 km/h (3 Bft) 97,87 %
31.07.2023 17:56 18,6 C 16,7 C 12,8 C 91 % 1006,5 hPa 0,0 l/m 0 min 2 min 33 W/m 29,0 km/h (5 Bft) 97,87 %
31.07.2023 17:58 18,6 C 16,7 C 12,8 C 91 % 1006,5 hPa 0,0 l/m 0 min 2 min 32 W/m 22,5 km/h (4 Bft) 97,87 %
31.07.2023 18:00 18,5 C 16,7 C 12,8 C 91 % 1006,4 hPa 0,0 l/m 0 min 2 min 37 W/m 29,0 km/h (5 Bft) 97,87 %
31.07.2023 18:02 18,4 C 17,2 C 12,8 C 91 % 1006,3 hPa 0,0 l/m 0 min 2 min 43 W/m 19,3 km/h (3 Bft) 95,74 %
31.07.2023 18:04 18,4 C 17,2 C 12,8 C 92 % 1006,4 hPa 0,0 l/m 0 min 2 min 44 W/m 22,5 km/h (4 Bft) 97,83 %
31.07.2023 18:08 18,3 C 17,2 C 12,8 C 92 % 1006,2 hPa 0,0 l/m 0 min 4 min 40 W/m 25,7 km/h (4 Bft) 96,47 %
31.07.2023 18:10 18,3 C 17,2 C 12,8 C 92 % 1006,2 hPa 0,0 l/m 0 min 0 min 37 W/m 19,3 km/h (3 Bft) 95,74 %
31.07.2023 18:12 18,3 C 17,2 C 12,8 C 92 % 1006,3 hPa 0,0 l/m 0 min 0 min 34 W/m 29,0 km/h (5 Bft) 95,74 %
31.07.2023 18:14 18,3 C 17,2 C 12,8 C 92 % 1006,2 hPa 0,0 l/m 0 min 0 min 32 W/m 16,1 km/h (3 Bft) 95,74 %
31.07.2023 18:16 18,3 C 17,2 C 12,8 C 92 % 1006,2 hPa 0,0 l/m 0 min 0 min 34 W/m 25,7 km/h (4 Bft) 93,62 %
31.07.2023 18:18 18,3 C 17,2 C 12,8 C 92 % 1006,1 hPa 0,0 l/m 0 min 0 min 40 W/m 16,1 km/h (3 Bft) 93,48 %
31.07.2023 18:20 18,3 C 17,8 C 12,8 C 92 % 1006,1 hPa 0,0 l/m 0 min 0 min 45 W/m 16,1 km/h (3 Bft) 95,74 %
31.07.2023 18:22 18,3 C 17,8 C 12,8 C 93 % 1006,1 hPa 0,0 l/m 0 min 0 min 45 W/m 19,3 km/h (3 Bft) 95,74 %
31.07.2023 18:24 18,3 C 17,8 C 12,8 C 93 % 1006,0 hPa 0,0 l/m 0 min 0 min 46 W/m 19,3 km/h (3 Bft) 95,74 %
31.07.2023 18:26 18,3 C 17,8 C 12,8 C 93 % 1006,0 hPa 0,0 l/m 0 min 0 min 39 W/m 25,7 km/h (4 Bft) 95,74 %
31.07.2023 18:28 18,3 C 17,8 C 12,8 C 93 % 1006,0 hPa 0,0 l/m 0 min 0 min 35 W/m 12,9 km/h (3 Bft) 95,74 %
31.07.2023 18:30 18,3 C 17,8 C 12,8 C 93 % 1006,0 hPa 0,0 l/m 0 min 2 min 32 W/m 19,3 km/h (3 Bft) 93,48 %
31.07.2023 18:32 18,3 C 17,2 C 12,8 C 92 % 1006,0 hPa 0,0 l/m 0 min 2 min 35 W/m 22,5 km/h (4 Bft) 93,62 %
31.07.2023 18:34 18,3 C 17,2 C 12,8 C 93 % 1006,0 hPa 0,0 l/m 0 min 2 min 36 W/m 19,3 km/h (3 Bft) 95,74 %
31.07.2023 18:36 18,2 C 17,2 C 12,8 C 93 % 1006,0 hPa 0,2 l/m 0 min 2 min 32 W/m 25,7 km/h (4 Bft) 89,36 %
31.07.2023 18:38 18,2 C 17,2 C 12,8 C 93 % 1005,9 hPa 0,0 l/m 0 min 2 min 29 W/m 19,3 km/h (3 Bft) 95,74 %
31.07.2023 18:40 18,2 C 17,2 C 12,8 C 93 % 1006,0 hPa 0,0 l/m 0 min 2 min 28 W/m 25,7 km/h (4 Bft) 95,74 %
31.07.2023 18:42 18,2 C 17,2 C 12,8 C 93 % 1005,8 hPa 0,0 l/m 0 min 2 min 29 W/m 22,5 km/h (4 Bft) 97,87 %
31.07.2023 18:44 18,1 C 17,2 C 12,8 C 93 % 1005,8 hPa 0,0 l/m 0 min 2 min 35 W/m 32,2 km/h (5 Bft) 97,83 %
31.07.2023 18:46 18,1 C 17,2 C 12,8 C 93 % 1005,7 hPa 0,0 l/m 0 min 2 min 42 W/m 41,8 km/h (6 Bft) 97,87 %
31.07.2023 18:48 18,1 C 17,2 C 12,8 C 93 % 1005,7 hPa 0,0 l/m 0 min 2 min 42 W/m 22,5 km/h (4 Bft) 97,87 %
31.07.2023 18:50 18,1 C 17,2 C 12,8 C 93 % 1005,6 hPa 0,0 l/m 0 min 2 min 38 W/m 19,3 km/h (3 Bft) 95,74 %
31.07.2023 18:52 18,1 C 17,2 C 12,8 C 93 % 1005,6 hPa 0,0 l/m 0 min 2 min 40 W/m 25,7 km/h (4 Bft) 93,62 %
31.07.2023 18:54 18,1 C 17,2 C 12,8 C 93 % 1005,5 hPa 0,0 l/m 0 min 2 min 35 W/m 16,1 km/h (3 Bft) 97,87 %
31.07.2023 18:56 18,1 C 17,2 C 12,8 C 93 % 1005,5 hPa 0,0 l/m 0 min 2 min 31 W/m 12,9 km/h (3 Bft) 95,74 %
31.07.2023 18:58 18,0 C 17,2 C 12,8 C 94 % 1005,5 hPa 0,0 l/m 0 min 2 min 28 W/m 16,1 km/h (3 Bft) 95,65 %
31.07.2023 19:00 18,0 C 17,2 C 12,8 C 94 % 1005,5 hPa 0,0 l/m 0 min 2 min 28 W/m 19,3 km/h (3 Bft) 95,74 %
31.07.2023 19:02 18,0 C 17,2 C 12,8 C 94 % 1005,5 hPa 0,0 l/m 0 min 0 min 31 W/m 19,3 km/h (3 Bft) 95,74 %
31.07.2023 19:04 18,0 C 17,2 C 12,8 C 94 % 1005,4 hPa 0,0 l/m 0 min 2 min 28 W/m 29,0 km/h (5 Bft) 96,00 %
31.07.2023 19:06 17,9 C 17,2 C 12,8 C 94 % 1005,4 hPa 0,0 l/m 0 min 2 min 26 W/m 19,3 km/h (3 Bft) 97,87 %
31.07.2023 19:08 17,9 C 17,2 C 12,8 C 94 % 1005,4 hPa 0,0 l/m 0 min 2 min 21 W/m 22,5 km/h (4 Bft) 95,74 %
31.07.2023 19:10 17,9 C 17,2 C 12,8 C 94 % 1005,2 hPa 0,0 l/m 0 min 0 min 17 W/m 29,0 km/h (5 Bft) 95,65 %
31.07.2023 19:12 17,9 C 17,2 C 12,8 C 94 % 1005,3 hPa 0,0 l/m 0 min 2 min 13 W/m 22,5 km/h (4 Bft) 97,87 %
31.07.2023 19:14 17,9 C 16,7 C 12,8 C 94 % 1005,3 hPa 0,0 l/m 0 min 2 min 19 W/m 19,3 km/h (3 Bft) 95,74 %
31.07.2023 19:16 17,9 C 16,7 C 12,8 C 94 % 1005,3 hPa 0,2 l/m 0 min 2 min 25 W/m 22,5 km/h (4 Bft) 97,87 %
31.07.2023 19:18 17,8 C 16,7 C 12,8 C 94 % 1005,2 hPa 0,0 l/m 0 min 2 min 27 W/m 25,7 km/h (4 Bft) 95,74 %
31.07.2023 19:20 17,8 C 16,1 C 12,8 C 94 % 1005,2 hPa 0,0 l/m 0 min 2 min 23 W/m 22,5 km/h (4 Bft) 97,87 %
31.07.2023 19:22 17,8 C 16,1 C 12,8 C 94 % 1005,1 hPa 0,2 l/m 0 min 2 min 18 W/m 22,5 km/h (4 Bft) 97,83 %
31.07.2023 19:24 17,7 C 16,1 C 12,8 C 94 % 1005,2 hPa 0,2 l/m 0 min 2 min 13 W/m 22,5 km/h (4 Bft) 97,87 %
31.07.2023 19:26 17,7 C 16,1 C 12,8 C 95 % 1005,1 hPa 0,2 l/m 0 min 2 min 13 W/m 32,2 km/h (5 Bft) 97,87 %
31.07.2023 19:28 17,6 C 16,1 C 12,8 C 95 % 1005,1 hPa 0,2 l/m 0 min 2 min 12 W/m 25,7 km/h (4 Bft) 100,00 %
31.07.2023 19:30 17,6 C 16,1 C 12,8 C 95 % 1005,0 hPa 0,4 l/m 0 min 2 min 14 W/m 16,1 km/h (3 Bft) 97,87 %
31.07.2023 19:32 17,6 C 16,1 C 12,8 C 95 % 1005,0 hPa 0,2 l/m 0 min 2 min 17 W/m 19,3 km/h (3 Bft) 95,74 %
31.07.2023 19:34 17,6 C 16,1 C 12,8 C 95 % 1005,0 hPa 0,0 l/m 0 min 2 min 20 W/m 25,7 km/h (4 Bft) 100,00 %
31.07.2023 19:36 17,5 C 16,1 C 12,8 C 95 % 1004,9 hPa 0,0 l/m 0 min 2 min 22 W/m 22,5 km/h (4 Bft) 100,00 %
31.07.2023 19:38 17,5 C 16,1 C 12,8 C 95 % 1005,0 hPa 0,2 l/m 0 min 2 min 21 W/m 12,9 km/h (3 Bft) 100,00 %
31.07.2023 19:40 17,4 C 16,1 C 12,8 C 96 % 1005,0 hPa 0,0 l/m 0 min 2 min 17 W/m 19,3 km/h (3 Bft) 100,00 %
31.07.2023 19:42 17,4 C 16,1 C 12,8 C 96 % 1004,9 hPa 0,0 l/m 0 min 2 min 16 W/m 12,9 km/h (3 Bft) 97,87 %
31.07.2023 19:44 17,4 C 16,1 C 12,8 C 96 % 1004,9 hPa 0,2 l/m 0 min 2 min 14 W/m 25,7 km/h (4 Bft) 100,00 %
31.07.2023 19:46 17,4 C 16,1 C 12,8 C 96 % 1004,9 hPa 0,0 l/m 0 min 2 min 14 W/m 22,5 km/h (4 Bft) 100,00 %
31.07.2023 19:48 17,4 C 16,1 C 12,8 C 96 % 1004,8 hPa 0,0 l/m 0 min 2 min 14 W/m 32,2 km/h (5 Bft) 97,83 %
31.07.2023 19:50 17,3 C 16,1 C 12,8 C 96 % 1004,9 hPa 0,0 l/m 0 min 2 min 12 W/m 22,5 km/h (4 Bft) 100,00 %
31.07.2023 19:52 17,3 C 16,1 C 12,8 C 96 % 1004,8 hPa 0,2 l/m 0 min 2 min 13 W/m 12,9 km/h (3 Bft) 100,00 %
31.07.2023 19:54 17,3 C 16,1 C 12,8 C 96 % 1004,8 hPa 0,2 l/m 0 min 2 min 15 W/m 19,3 km/h (3 Bft) 97,87 %
31.07.2023 19:56 17,3 C 16,1 C 12,8 C 96 % 1004,8 hPa 0,0 l/m 0 min 2 min 13 W/m 19,3 km/h (3 Bft) 97,87 %
31.07.2023 19:58 17,3 C 16,1 C 12,8 C 97 % 1004,9 hPa 0,0 l/m 0 min 2 min 9 W/m 19,3 km/h (3 Bft) 100,00 %
31.07.2023 20:00 17,3 C 16,1 C 12,8 C 97 % 1004,8 hPa 0,2 l/m 0 min 2 min 9 W/m 29,0 km/h (5 Bft) 100,00 %
31.07.2023 20:02 17,3 C 16,1 C 12,8 C 97 % 1004,9 hPa 0,0 l/m 0 min 2 min 11 W/m 25,7 km/h (4 Bft) 100,00 %
31.07.2023 20:04 17,3 C 16,1 C 12,8 C 97 % 1004,8 hPa 0,0 l/m 0 min 2 min 11 W/m 9,7 km/h (2 Bft) 100,00 %
31.07.2023 20:06 17,3 C 16,1 C 12,8 C 97 % 1004,7 hPa 0,0 l/m 0 min 2 min 10 W/m 19,3 km/h (3 Bft) 100,00 %
31.07.2023 20:08 17,2 C 16,1 C 12,8 C 97 % 1004,6 hPa 0,0 l/m 0 min 2 min 10 W/m 12,9 km/h (3 Bft) 100,00 %
31.07.2023 20:10 17,2 C 16,1 C 12,8 C 97 % 1004,7 hPa 0,2 l/m 0 min 0 min 10 W/m 19,3 km/h (3 Bft) 100,00 %
31.07.2023 20:12 17,2 C 16,1 C 12,8 C 97 % 1004,6 hPa 0,0 l/m 0 min 2 min 9 W/m 9,7 km/h (2 Bft) 97,22 %
31.07.2023 20:14 17,2 C 16,1 C 12,8 C 97 % 1004,7 hPa 0,0 l/m 0 min 0 min 10 W/m 19,3 km/h (3 Bft) 100,00 %
31.07.2023 20:16 17,2 C 16,1 C 12,8 C 97 % 1004,6 hPa 0,0 l/m 0 min 0 min 9 W/m 22,5 km/h (4 Bft) 97,83 %
31.07.2023 20:18 17,2 C 16,1 C 12,8 C 97 % 1004,6 hPa 0,0 l/m 0 min 0 min 8 W/m 19,3 km/h (3 Bft) 100,00 %
31.07.2023 20:20 17,2 C 16,1 C 12,8 C 97 % 1004,5 hPa 0,0 l/m 0 min 2 min 7 W/m 32,2 km/h (5 Bft) 97,87 %
31.07.2023 20:22 17,2 C 16,1 C 12,8 C 97 % 1004,5 hPa 0,0 l/m 0 min 0 min 7 W/m 12,9 km/h (3 Bft) 100,00 %
31.07.2023 20:24 17,2 C 16,1 C 12,8 C 97 % 1004,4 hPa 0,0 l/m 0 min 2 min 7 W/m 16,1 km/h (3 Bft) 97,87 %
31.07.2023 20:26 17,2 C 16,1 C 12,8 C 98 % 1004,4 hPa 0,2 l/m 0 min 2 min 7 W/m 12,9 km/h (3 Bft) 100,00 %
31.07.2023 20:28 17,2 C 16,1 C 12,8 C 98 % 1004,4 hPa 0,0 l/m 0 min 2 min 7 W/m 19,3 km/h (3 Bft) 93,62 %
31.07.2023 20:30 17,2 C 16,1 C 12,8 C 98 % 1004,4 hPa 0,0 l/m 0 min 2 min 6 W/m 38,6 km/h (5 Bft) 95,65 %
31.07.2023 20:32 17,2 C 16,1 C 12,8 C 98 % 1004,4 hPa 0,0 l/m 0 min 2 min 5 W/m 32,2 km/h (5 Bft) 100,00 %
31.07.2023 20:34 17,2 C 16,1 C 12,8 C 98 % 1004,4 hPa 0,2 l/m 0 min 2 min 5 W/m 12,9 km/h (3 Bft) 100,00 %
31.07.2023 20:36 17,2 C 16,1 C 12,8 C 98 % 1004,3 hPa 0,0 l/m 0 min 2 min 4 W/m 16,1 km/h (3 Bft) 97,87 %
31.07.2023 20:38 17,2 C 16,1 C 12,8 C 98 % 1004,4 hPa 0,0 l/m 0 min 2 min 0 W/m 29,0 km/h (5 Bft) 97,87 %
31.07.2023 20:40 17,2 C 16,1 C 12,8 C 98 % 1004,3 hPa 0,2 l/m 0 min 2 min 0 W/m 29,0 km/h (5 Bft) 100,00 %
31.07.2023 20:42 17,2 C 16,1 C 12,8 C 98 % 1004,2 hPa 0,0 l/m 0 min 2 min 0 W/m 19,3 km/h (3 Bft) 97,87 %
31.07.2023 20:44 17,2 C 16,1 C 12,8 C 98 % 1004,3 hPa 0,2 l/m 0 min 2 min 0 W/m 19,3 km/h (3 Bft) 95,65 %
31.07.2023 20:46 17,2 C 16,1 C 12,8 C 98 % 1004,2 hPa 0,2 l/m 0 min 2 min 0 W/m 19,3 km/h (3 Bft) 97,87 %
31.07.2023 20:48 17,2 C 16,1 C 12,8 C 98 % 1004,2 hPa 0,0 l/m 0 min 2 min 0 W/m 19,3 km/h (3 Bft) 95,74 %
31.07.2023 20:50 17,2 C 16,1 C 12,8 C 98 % 1004,2 hPa 0,2 l/m 0 min 2 min 0 W/m 16,1 km/h (3 Bft) 93,62 %
31.07.2023 20:52 17,2 C 16,1 C 12,8 C 98 % 1004,1 hPa 0,0 l/m 0 min 2 min 0 W/m 16,1 km/h (3 Bft) 93,62 %
31.07.2023 20:54 17,2 C 16,1 C 12,8 C 98 % 1004,1 hPa 0,0 l/m 0 min 2 min 0 W/m 22,5 km/h (4 Bft) 95,74 %
31.07.2023 20:56 17,2 C 16,1 C 12,8 C 98 % 1004,1 hPa 0,0 l/m 0 min 2 min 0 W/m 32,2 km/h (5 Bft) 95,65 %
31.07.2023 20:58 17,2 C 16,1 C 12,8 C 98 % 1004,0 hPa 0,2 l/m 0 min 2 min 0 W/m 16,1 km/h (3 Bft) 93,62 %
31.07.2023 21:00 17,2 C 16,1 C 12,8 C 98 % 1003,8 hPa 0,0 l/m 0 min 2 min 0 W/m 16,1 km/h (3 Bft) 95,74 %
31.07.2023 21:02 17,2 C 16,1 C 12,8 C 98 % 1003,8 hPa 0,2 l/m 0 min 2 min 0 W/m 25,7 km/h (4 Bft) 89,36 %
31.07.2023 21:04 17,2 C 16,1 C 12,8 C 98 % 1003,7 hPa 0,2 l/m 0 min 2 min 0 W/m 25,7 km/h (4 Bft) 91,84 %
31.07.2023 21:06 17,2 C 16,1 C 12,8 C 98 % 1003,7 hPa 0,0 l/m 0 min 2 min 0 W/m 16,1 km/h (3 Bft) 89,66 %
31.07.2023 21:08 17,1 C 16,1 C 12,8 C 98 % 1003,5 hPa 0,0 l/m 0 min 2 min 0 W/m 25,7 km/h (4 Bft) 91,67 %
31.07.2023 21:10 17,1 C 16,1 C 12,8 C 98 % 1003,4 hPa 0,0 l/m 0 min 0 min 0 W/m 35,4 km/h (5 Bft) 91,30 %
31.07.2023 21:12 17,1 C 16,1 C 12,8 C 98 % 1003,2 hPa 0,0 l/m 0 min 2 min 0 W/m 19,3 km/h (3 Bft) 91,49 %
31.07.2023 21:14 17,2 C 16,1 C 12,8 C 98 % 1003,1 hPa 0,2 l/m 0 min 2 min 0 W/m 22,5 km/h (4 Bft) 91,49 %
31.07.2023 21:16 17,2 C 16,1 C 12,8 C 98 % 1003,1 hPa 0,0 l/m 0 min 0 min 0 W/m 29,0 km/h (5 Bft) 91,49 %
31.07.2023 21:18 17,2 C 16,1 C 12,8 C 98 % 1003,0 hPa 0,0 l/m 0 min 2 min 0 W/m 25,7 km/h (4 Bft) 93,62 %
31.07.2023 21:20 17,1 C 16,1 C 12,8 C 98 % 1003,1 hPa 0,0 l/m 0 min 2 min 0 W/m 19,3 km/h (3 Bft) 91,49 %
31.07.2023 21:22 17,1 C 16,1 C 12,8 C 98 % 1003,2 hPa 0,0 l/m 0 min 2 min 0 W/m 19,3 km/h (3 Bft) 95,65 %
31.07.2023 21:24 17,2 C 16,1 C 12,8 C 98 % 1003,1 hPa 0,0 l/m 0 min 2 min 0 W/m 12,9 km/h (3 Bft) 95,74 %
31.07.2023 21:26 17,1 C 16,1 C 12,8 C 98 % 1003,3 hPa 0,0 l/m 0 min 2 min 0 W/m 22,5 km/h (4 Bft) 93,62 %
31.07.2023 21:28 17,1 C 16,1 C 12,8 C 98 % 1003,4 hPa 0,0 l/m 0 min 0 min 0 W/m 16,1 km/h (3 Bft) 95,74 %
31.07.2023 21:30 17,2 C 16,1 C 12,8 C 98 % 1003,4 hPa 0,0 l/m 0 min 0 min 0 W/m 16,1 km/h (3 Bft) 93,62 %
31.07.2023 21:32 17,2 C 16,1 C 12,8 C 98 % 1003,5 hPa 0,0 l/m 0 min 0 min 0 W/m 16,1 km/h (3 Bft) 91,49 %
31.07.2023 21:34 17,2 C 16,1 C 12,8 C 98 % 1003,5 hPa 0,0 l/m 0 min 0 min 0 W/m 22,5 km/h (4 Bft) 97,87 %
31.07.2023 21:36 17,2 C 16,1 C 12,8 C 98 % 1003,5 hPa 0,0 l/m 0 min 0 min 0 W/m 29,0 km/h (5 Bft) 97,83 %
31.07.2023 21:38 17,2 C 16,1 C 12,8 C 98 % 1003,6 hPa 0,0 l/m 0 min 0 min 0 W/m 22,5 km/h (4 Bft) 93,62 %
31.07.2023 21:40 17,2 C 16,1 C 12,8 C 98 % 1003,6 hPa 0,0 l/m 0 min 0 min 0 W/m 19,3 km/h (3 Bft) 97,87 %
31.07.2023 21:42 17,2 C 16,1 C 12,8 C 98 % 1003,3 hPa 0,0 l/m 0 min 0 min 0 W/m 22,5 km/h (4 Bft) 97,87 %
31.07.2023 21:44 17,2 C 16,1 C 12,8 C 98 % 1003,4 hPa 0,0 l/m 0 min 0 min 0 W/m 25,7 km/h (4 Bft) 95,74 %
31.07.2023 21:46 17,2 C 16,1 C 12,8 C 99 % 1003,4 hPa 0,0 l/m 0 min 0 min 0 W/m 19,3 km/h (3 Bft) 95,74 %
31.07.2023 21:48 17,2 C 16,1 C 12,8 C 99 % 1003,4 hPa 0,0 l/m 0 min 0 min 0 W/m 32,2 km/h (5 Bft) 97,87 %
31.07.2023 21:50 17,2 C 16,1 C 12,8 C 99 % 1003,4 hPa 0,0 l/m 0 min 0 min 0 W/m 16,1 km/h (3 Bft) 97,83 %
31.07.2023 21:52 17,2 C 16,1 C 12,8 C 99 % 1003,3 hPa 0,0 l/m 0 min 0 min 0 W/m 19,3 km/h (3 Bft) 97,87 %
31.07.2023 21:54 17,2 C 16,1 C 12,8 C 99 % 1003,3 hPa 0,0 l/m 0 min 0 min 0 W/m 16,1 km/h (3 Bft) 97,87 %
31.07.2023 21:56 17,2 C 16,1 C 12,8 C 99 % 1003,3 hPa 0,0 l/m 0 min 0 min 0 W/m 12,9 km/h (3 Bft) 95,74 %
31.07.2023 21:58 17,2 C 16,1 C 12,8 C 99 % 1003,4 hPa 0,0 l/m 0 min 0 min 0 W/m 25,7 km/h (4 Bft) 100,00 %
31.07.2023 22:00 17,3 C 16,1 C 13,3 C 99 % 1003,3 hPa 0,0 l/m 0 min 0 min 0 W/m 16,1 km/h (3 Bft) 100,00 %
31.07.2023 22:02 17,2 C 16,1 C 12,8 C 99 % 1003,3 hPa 0,0 l/m 0 min 0 min 0 W/m 16,1 km/h (3 Bft) 95,65 %
31.07.2023 22:04 17,2 C 16,1 C 12,8 C 98 % 1003,4 hPa 0,0 l/m 0 min 0 min 0 W/m 22,5 km/h (4 Bft) 100,00 %
31.07.2023 22:06 17,2 C 16,1 C 12,8 C 98 % 1003,4 hPa 0,0 l/m 0 min 0 min 0 W/m 19,3 km/h (3 Bft) 100,00 %
31.07.2023 22:08 17,2 C 16,1 C 12,8 C 98 % 1003,4 hPa 0,0 l/m 0 min 0 min 0 W/m 19,3 km/h (3 Bft) 95,74 %
31.07.2023 22:10 17,3 C 16,1 C 13,3 C 98 % 1003,4 hPa 0,0 l/m 0 min 0 min 0 W/m 29,0 km/h (5 Bft) 95,74 %
31.07.2023 22:12 17,3 C 16,1 C 13,3 C 98 % 1003,4 hPa 0,0 l/m 0 min 0 min 0 W/m 12,9 km/h (3 Bft) 100,00 %
31.07.2023 22:14 17,3 C 16,1 C 13,3 C 98 % 1003,5 hPa 0,0 l/m 0 min 0 min 0 W/m 22,5 km/h (4 Bft) 100,00 %
31.07.2023 22:16 17,3 C 16,1 C 13,3 C 98 % 1003,4 hPa 0,0 l/m 0 min 0 min 0 W/m 22,5 km/h (4 Bft) 100,00 %
31.07.2023 22:18 17,3 C 16,1 C 13,3 C 98 % 1003,4 hPa 0,0 l/m 0 min 0 min 0 W/m 22,5 km/h (4 Bft) 97,87 %
31.07.2023 22:20 17,3 C 16,1 C 13,3 C 98 % 1003,3 hPa 0,0 l/m 0 min 0 min 0 W/m 22,5 km/h (4 Bft) 100,00 %
31.07.2023 22:22 17,3 C 16,1 C 13,3 C 98 % 1003,3 hPa 0,0 l/m 0 min 0 min 0 W/m 12,9 km/h (3 Bft) 100,00 %
31.07.2023 22:24 17,3 C 16,1 C 13,3 C 98 % 1003,1 hPa 0,0 l/m 0 min 0 min 0 W/m 12,9 km/h (3 Bft) 100,00 %
31.07.2023 22:26 17,3 C 16,1 C 13,3 C 98 % 1003,0 hPa 0,0 l/m 0 min 0 min 0 W/m 16,1 km/h (3 Bft) 100,00 %
31.07.2023 22:28 17,3 C 16,1 C 13,3 C 98 % 1003,1 hPa 0,0 l/m 0 min 0 min 0 W/m 19,3 km/h (3 Bft) 100,00 %
31.07.2023 22:30 17,3 C 16,1 C 13,3 C 98 % 1003,1 hPa 0,0 l/m 0 min 0 min 0 W/m 16,1 km/h (3 Bft) 100,00 %
31.07.2023 22:32 17,3 C 16,1 C 13,3 C 98 % 1003,2 hPa 0,0 l/m 0 min 0 min 0 W/m 22,5 km/h (4 Bft) 97,87 %
31.07.2023 22:34 17,3 C 16,1 C 12,8 C 98 % 1003,1 hPa 0,0 l/m 0 min 0 min 0 W/m 35,4 km/h (5 Bft) 100,00 %
31.07.2023 22:36 17,3 C 16,1 C 12,8 C 98 % 1003,1 hPa 0,0 l/m 0 min 0 min 0 W/m 12,9 km/h (3 Bft) 97,87 %
31.07.2023 22:38 17,3 C 16,1 C 12,8 C 98 % 1003,0 hPa 0,0 l/m 0 min 0 min 0 W/m 19,3 km/h (3 Bft) 100,00 %
31.07.2023 22:40 17,3 C 16,1 C 12,8 C 98 % 1003,1 hPa 0,0 l/m 0 min 0 min 0 W/m 25,7 km/h (4 Bft) 100,00 %
31.07.2023 22:42 17,3 C 16,1 C 12,8 C 98 % 1003,1 hPa 0,0 l/m 0 min 0 min 0 W/m 25,7 km/h (4 Bft) 97,87 %
31.07.2023 22:44 17,3 C 16,1 C 12,8 C 98 % 1003,0 hPa 0,0 l/m 0 min 0 min 0 W/m 25,7 km/h (4 Bft) 97,87 %
31.07.2023 22:46 17,3 C 16,1 C 12,8 C 98 % 1003,0 hPa 0,0 l/m 0 min 0 min 0 W/m 29,0 km/h (5 Bft) 95,74 %
31.07.2023 22:48 17,3 C 16,1 C 12,8 C 98 % 1002,9 hPa 0,0 l/m 0 min 0 min 0 W/m 29,0 km/h (5 Bft) 97,87 %
31.07.2023 22:50 17,3 C 16,1 C 12,8 C 98 % 1002,9 hPa 0,0 l/m 0 min 0 min 0 W/m 22,5 km/h (4 Bft) 97,87 %
31.07.2023 22:52 17,3 C 16,1 C 12,8 C 98 % 1002,7 hPa 0,0 l/m 0 min 0 min 0 W/m 16,1 km/h (3 Bft) 97,87 %
31.07.2023 22:54 17,3 C 16,1 C 12,8 C 98 % 1002,7 hPa 0,0 l/m 0 min 0 min 0 W/m 19,3 km/h (3 Bft) 97,83 %
31.07.2023 22:56 17,3 C 16,1 C 12,8 C 98 % 1002,8 hPa 0,0 l/m 0 min 2 min 0 W/m 25,7 km/h (4 Bft) 97,87 %
31.07.2023 22:58 17,4 C 16,1 C 12,8 C 98 % 1002,7 hPa 0,0 l/m 0 min 2 min 0 W/m 19,3 km/h (3 Bft) 95,74 %
31.07.2023 23:00 17,3 C 16,1 C 12,8 C 98 % 1002,7 hPa 0,0 l/m 0 min 0 min 0 W/m 19,3 km/h (3 Bft) 97,87 %
31.07.2023 23:02 17,4 C 16,1 C 12,8 C 98 % 1002,7 hPa 0,0 l/m 0 min 2 min 0 W/m 12,9 km/h (3 Bft) 97,87 %
31.07.2023 23:04 17,4 C 16,1 C 12,8 C 98 % 1002,7 hPa 0,0 l/m 0 min 2 min 0 W/m 16,1 km/h (3 Bft) 95,83 %
31.07.2023 23:06 17,3 C 16,1 C 12,8 C 98 % 1002,7 hPa 0,0 l/m 0 min 2 min 0 W/m 9,7 km/h (2 Bft) 93,62 %
31.07.2023 23:08 17,4 C 16,1 C 12,8 C 97 % 1002,7 hPa 0,0 l/m 0 min 2 min 0 W/m 12,9 km/h (3 Bft) 95,74 %
31.07.2023 23:10 17,3 C 16,1 C 12,8 C 97 % 1002,6 hPa 0,0 l/m 0 min 2 min 0 W/m 19,3 km/h (3 Bft) 97,22 %
31.07.2023 23:12 17,3 C 16,1 C 13,3 C 97 % 1002,6 hPa 0,0 l/m 0 min 2 min 0 W/m 12,9 km/h (3 Bft) 97,87 %
31.07.2023 23:14 17,3 C 16,1 C 13,3 C 97 % 1002,5 hPa 0,0 l/m 0 min 0 min 0 W/m 16,1 km/h (3 Bft) 97,87 %
31.07.2023 23:16 17,3 C 16,1 C 13,3 C 97 % 1002,4 hPa 0,0 l/m 0 min 0 min 0 W/m 9,7 km/h (2 Bft) 100,00 %
31.07.2023 23:18 17,3 C 16,1 C 12,8 C 97 % 1002,4 hPa 0,0 l/m 0 min 0 min 0 W/m 29,0 km/h (5 Bft) 100,00 %
31.07.2023 23:20 17,3 C 16,1 C 13,3 C 97 % 1002,3 hPa 0,0 l/m 0 min 0 min 0 W/m 12,9 km/h (3 Bft) 100,00 %
31.07.2023 23:22 17,3 C 16,1 C 13,3 C 98 % 1002,3 hPa 0,0 l/m 0 min 0 min 0 W/m 19,3 km/h (3 Bft) 97,83 %
31.07.2023 23:24 17,3 C 16,1 C 13,3 C 98 % 1002,3 hPa 0,0 l/m 0 min 0 min 0 W/m 9,7 km/h (2 Bft) 100,00 %
31.07.2023 23:26 17,3 C 16,1 C 13,3 C 98 % 1002,2 hPa 0,0 l/m 0 min 0 min 0 W/m 6,4 km/h (2 Bft) 100,00 %
31.07.2023 23:28 17,3 C 16,1 C 13,3 C 98 % 1002,2 hPa 0,0 l/m 0 min 0 min 0 W/m 12,9 km/h (3 Bft) 100,00 %
31.07.2023 23:30 17,3 C 16,1 C 13,3 C 98 % 1002,2 hPa 0,0 l/m 0 min 0 min 0 W/m 16,1 km/h (3 Bft) 100,00 %
31.07.2023 23:32 17,3 C 16,1 C 13,3 C 98 % 1002,0 hPa 0,0 l/m 0 min 0 min 0 W/m 19,3 km/h (3 Bft) 97,87 %
31.07.2023 23:34 17,3 C 16,1 C 13,3 C 98 % 1002,1 hPa 0,0 l/m 0 min 0 min 0 W/m 19,3 km/h (3 Bft) 100,00 %
31.07.2023 23:36 17,3 C 16,1 C 13,3 C 98 % 1002,1 hPa 0,0 l/m 0 min 0 min 0 W/m 19,3 km/h (3 Bft) 97,83 %
31.07.2023 23:38 17,3 C 16,1 C 13,3 C 98 % 1002,0 hPa 0,0 l/m 0 min 0 min 0 W/m 16,1 km/h (3 Bft) 97,87 %
31.07.2023 23:40 17,3 C 16,1 C 13,3 C 98 % 1001,9 hPa 0,0 l/m 0 min 0 min 0 W/m 6,4 km/h (2 Bft) 97,87 %
31.07.2023 23:42 17,3 C 16,1 C 13,3 C 98 % 1001,9 hPa 0,0 l/m 0 min 0 min 0 W/m 16,1 km/h (3 Bft) 97,87 %
31.07.2023 23:44 17,3 C 16,1 C 13,3 C 98 % 1001,8 hPa 0,0 l/m 0 min 0 min 0 W/m 16,1 km/h (3 Bft) 97,87 %
31.07.2023 23:46 17,3 C 16,1 C 13,3 C 98 % 1001,9 hPa 0,0 l/m 0 min 0 min 0 W/m 25,7 km/h (4 Bft) 97,87 %
31.07.2023 23:48 17,3 C 16,1 C 13,3 C 98 % 1001,8 hPa 0,0 l/m 0 min 2 min 0 W/m 12,9 km/h (3 Bft) 97,83 %
31.07.2023 23:50 17,3 C 16,1 C 13,3 C 98 % 1001,8 hPa 0,2 l/m 0 min 2 min 0 W/m 22,5 km/h (4 Bft) 95,74 %
31.07.2023 23:52 17,3 C 16,1 C 13,3 C 98 % 1001,7 hPa 0,2 l/m 0 min 2 min 0 W/m 12,9 km/h (3 Bft) 97,87 %
31.07.2023 23:54 17,4 C 16,1 C 13,3 C 98 % 1001,6 hPa 0,0 l/m 0 min 2 min 0 W/m 12,9 km/h (3 Bft) 95,83 %
31.07.2023 23:56 17,3 C 16,1 C 13,3 C 98 % 1001,6 hPa 0,0 l/m 0 min 2 min 0 W/m 9,7 km/h (2 Bft) 95,74 %
31.07.2023 23:58 17,3 C 16,1 C 13,3 C 98 % 1001,5 hPa 0,2 l/m 0 min 2 min 0 W/m 12,9 km/h (3 Bft) 96,36 %
_ Min-Zeit 00:00 00:00 03:44 17:22 23:58 - - - - 02:52 12:10
Minimum _ 16,2 C 15,0 C 11,1 C 86 % 1001,5 hPa - - - - 6,4 km/h (2 Bft) 51,16 %
_ Max-Zeit 17:06 15:36 17:08 21:46 00:02 19:30 00:00 00:08 15:36 09:44 00:12
Maximum _ 19,4 C 19,4 C 15,6 C 99 % 1012,4 hPa 0,4 l/m 0 min 4 min 300 W/m 48,3 km/h
S-SO (6 Bft)
100,00 %
Durchschnitt _ 17,3 C 16,5 C 12,6 C 95 % 1008,3 hPa #10,4 l/m #0 min. #8:46 h 80 W/m 20,4 km/h (4 Bft) 97,39 %
© 2023 W. Hausmann